Time,TemperatureF,DewpointF,PressureIn,WindDirection,WindDirectionDegrees,WindSpeedMPH,WindSpeedGustMPH,Humidity,HourlyPrecipIn,Conditions,Clouds,dailyrainin,SoftwareType,DateUTC
2013-11-18 08:19:00,34.6,31.4,29.37,WNW,292,1.0,5.0,88,0.00,,,0.00,VWS V12.07,2013-11-18 14:19:00,
2013-11-18 08:20:00,34.6,31.7,29.37,West,270,1.0,5.0,89,0.00,,,0.00,VWS V12.07,2013-11-18 14:20:00,
2013-11-18 08:25:00,25.8,21.1,29.71,SW,222,2.0,15.0,82,0.00,,OVC040,0.01,VWS V12.07,2013-11-18 14:25:00,
2013-11-18 08:26:00,25.8,21.1,29.73,WSW,252,0.0,15.0,82,0.00,,OVC040,0.01,VWS V12.07,2013-11-18 14:26:00,
2013-11-18 08:30:00,25.8,20.8,29.73,WNW,294,5.0,15.0,81,0.00,,OVC040,0.01,VWS V12.07,2013-11-18 14:30:00,
2013-11-18 08:31:00,25.8,20.8,29.73,NW,318,3.0,15.0,81,0.00,,OVC040,0.01,VWS V12.07,2013-11-18 14:31:00,
2013-11-18 08:32:00,25.8,20.8,29.73,NNE,32,0.0,15.0,81,0.00,,OVC031,0.01,VWS V12.07,2013-11-18 14:32:00,
2013-11-18 08:35:00,25.8,21.1,29.73,WNW,293,1.0,15.0,82,0.00,,OVC031,0.01,VWS V12.07,2013-11-18 14:35:00,
2013-11-18 08:36:00,26.0,21.3,29.73,WNW,293,1.0,15.0,82,0.00,,OVC031,0.01,VWS V12.07,2013-11-18 14:36:00,
2013-11-18 08:37:00,26.0,21.3,29.73,WSW,241,3.0,15.0,82,0.00,,OVC031,0.01,VWS V12.07,2013-11-18 14:37:00,
2013-11-18 08:41:00,25.8,20.5,29.74,North,4,2.0,15.0,80,0.00,,OVC031,0.01,VWS V12.07,2013-11-18 14:41:00,
2013-11-18 08:42:00,25.8,20.5,29.74,NNW,345,0.0,15.0,80,0.00,,OVC031,0.01,VWS V12.07,2013-11-18 14:42:00,
2013-11-18 08:46:00,26.0,20.7,29.74,North,351,2.0,15.0,80,0.00,,OVC031,0.01,VWS V12.07,2013-11-18 14:46:00,
2013-11-18 08:47:00,26.0,20.7,29.74,West,272,0.0,15.0,80,0.00,,OVC031,0.01,VWS V12.07,2013-11-18 14:47:00,
2013-11-18 08:48:00,26.0,20.7,29.74,West,272,0.0,15.0,80,0.00,,OVC031,0.01,VWS V12.07,2013-11-18 14:48:00,
2013-11-18 08:49:00,26.0,20.7,29.74,NNW,333,2.0,15.0,80,0.00,,OVC031,0.01,VWS V12.07,2013-11-18 14:49:00,
2013-11-18 08:51:00,26.0,20.7,29.74,WSW,243,1.0,15.0,80,0.00,,OVC031,0.01,VWS V12.07,2013-11-18 14:51:00,
2013-11-18 08:53:00,26.0,20.7,29.74,WNW,294,1.0,15.0,80,0.00,,OVC031,0.01,VWS V12.07,2013-11-18 14:53:00,
2013-11-18 08:54:00,26.0,20.7,29.74,SSW,198,3.0,15.0,80,0.00,,OVC031,0.01,VWS V12.07,2013-11-18 14:54:00,
2013-11-18 08:56:00,26.0,20.7,29.75,WNW,299,2.0,15.0,80,0.00,,OVC031,0.01,VWS V12.07,2013-11-18 14:56:00,
2013-11-18 08:57:00,26.0,20.7,29.75,WNW,299,0.0,15.0,80,0.00,,OVC031,0.01,VWS V12.07,2013-11-18 14:57:00,
2013-11-18 08:58:00,26.0,20.4,29.75,South,171,0.0,15.0,79,0.00,,OVC025,0.01,VWS V12.07,2013-11-18 14:58:00,
2013-11-18 08:59:00,26.0,20.7,29.75,West,281,2.0,15.0,80,0.00,,OVC025,0.01,VWS V12.07,2013-11-18 14:59:00,
2013-11-18 09:02:00,26.0,20.4,29.75,North,349,4.0,15.0,79,0.00,,OVC025,0.01,VWS V12.07,2013-11-18 15:02:00,
2013-11-18 09:04:00,26.0,20.4,29.75,WNW,302,2.0,15.0,79,0.00,,OVC025,0.01,VWS V12.07,2013-11-18 15:04:00,
2013-11-18 09:05:00,26.0,20.1,29.75,NW,318,0.0,15.0,78,0.00,,OVC030,0.01,VWS V12.07,2013-11-18 15:05:00,
2013-11-18 09:08:00,26.0,20.4,29.75,NNW,347,1.0,15.0,79,0.00,,OVC025,0.01,VWS V12.07,2013-11-18 15:08:00,
2013-11-18 09:09:00,26.0,20.1,29.75,WSW,254,0.0,15.0,78,0.00,,OVC025,0.01,VWS V12.07,2013-11-18 15:09:00,
2013-11-18 09:10:00,26.0,20.1,29.75,NW,319,4.0,15.0,78,0.00,,OVC025,0.01,VWS V12.07,2013-11-18 15:10:00,
2013-11-18 09:13:00,26.0,19.5,29.76,SW,236,1.0,15.0,76,0.00,,OVC025,0.01,VWS V12.07,2013-11-18 15:13:00,
2013-11-18 09:14:00,26.0,19.5,29.76,SW,231,4.0,15.0,76,0.00,,OVC025,0.01,VWS V12.07,2013-11-18 15:14:00,
2013-11-18 09:15:00,26.0,19.8,29.76,West,268,2.0,15.0,77,0.00,,OVC025,0.01,VWS V12.07,2013-11-18 15:15:00,
2013-11-18 09:16:00,26.0,19.8,29.76,South,169,4.0,15.0,77,0.00,,OVC025,0.01,VWS V12.07,2013-11-18 15:16:00,
2013-11-18 09:19:00,26.1,20.2,29.76,NW,314,5.0,15.0,78,0.00,,OVC025,0.01,VWS V12.07,2013-11-18 15:19:00,
2013-11-18 09:20:00,26.1,20.2,29.76,NNW,333,2.0,15.0,78,0.00,,OVC025,0.01,VWS V12.07,2013-11-18 15:20:00,
2013-11-18 09:21:00,26.0,19.8,29.76,NNW,331,1.0,15.0,77,0.00,,OVC025,0.01,VWS V12.07,2013-11-18 15:21:00,
2013-11-18 09:24:00,26.0,19.8,29.76,WSW,252,1.0,15.0,77,0.00,,OVC025,0.01,VWS V12.07,2013-11-18 15:24:00,
2013-11-18 09:25:00,26.0,19.8,29.76,WNW,282,3.0,15.0,77,0.00,,OVC025,0.01,VWS V12.07,2013-11-18 15:25:00,
2013-11-18 09:26:00,26.0,19.8,29.78,SSW,209,4.0,15.0,77,0.00,,OVC025,0.01,VWS V12.07,2013-11-18 15:26:00,
2013-11-18 09:27:00,26.0,19.5,29.78,WNW,301,2.0,15.0,76,0.00,,OVC025,0.01,VWS V12.07,2013-11-18 15:27:00,
2013-11-18 09:30:00,26.0,19.5,29.78,West,270,6.0,15.0,76,0.00,,OVC025,0.01,VWS V12.07,2013-11-18 15:30:00,
2013-11-18 09:31:00,26.0,19.8,29.78,WSW,250,4.0,15.0,77,0.00,,OVC025,0.01,VWS V12.07,2013-11-18 15:31:00,
2013-11-18 09:32:00,26.0,19.5,29.78,West,271,0.0,15.0,76,0.00,,OVC025,0.01,VWS V12.07,2013-11-18 15:32:00,
2013-11-18 09:35:00,25.8,19.6,29.78,SSW,213,2.0,15.0,77,0.00,,OVC023,0.01,VWS V12.07,2013-11-18 15:35:00,
2013-11-18 09:37:00,25.8,19.6,29.78,WNW,303,5.0,15.0,77,0.00,,OVC023,0.01,VWS V12.07,2013-11-18 15:37:00,
2013-11-18 09:38:00,25.8,19.3,29.78,NNW,333,3.0,15.0,76,0.00,,OVC023,0.01,VWS V12.07,2013-11-18 15:38:00,
2013-11-18 09:40:00,25.8,19.6,29.78,NNW,333,1.0,15.0,77,0.00,,OVC023,0.01,VWS V12.07,2013-11-18 15:40:00,
2013-11-18 09:41:00,25.8,19.3,29.80,SSW,193,0.0,15.0,76,0.00,,OVC023,0.01,VWS V12.07,2013-11-18 15:41:00,
2013-11-18 09:42:00,25.8,19.3,29.80,WNW,302,1.0,15.0,76,0.00,,OVC023,0.01,VWS V12.07,2013-11-18 15:42:00,
2013-11-18 09:43:00,25.8,19.6,29.80,West,265,0.0,15.0,77,0.00,,OVC023,0.01,VWS V12.07,2013-11-18 15:43:00,
2013-11-18 09:44:00,25.8,19.6,29.80,West,264,0.0,15.0,77,0.00,,OVC023,0.01,VWS V12.07,2013-11-18 15:44:00,
2013-11-18 09:46:00,25.8,19.6,29.80,North,358,0.0,15.0,77,0.00,,OVC023,0.01,VWS V12.07,2013-11-18 15:46:00,
2013-11-18 09:47:00,25.8,19.9,29.80,NE,51,2.0,15.0,78,0.00,,OVC023,0.01,VWS V12.07,2013-11-18 15:47:00,
2013-11-18 09:49:00,25.8,19.6,29.80,NW,321,3.0,15.0,77,0.00,,OVC025,0.01,VWS V12.07,2013-11-18 15:49:00,
2013-11-18 09:50:00,25.8,19.3,29.80,NW,311,0.0,15.0,76,0.00,,OVC025,0.01,VWS V12.07,2013-11-18 15:50:00,
2013-11-18 09:51:00,25.8,19.3,29.80,NE,49,0.0,15.0,76,0.00,,OVC025,0.01,VWS V12.07,2013-11-18 15:51:00,
2013-11-18 09:52:00,25.8,19.6,29.80,NE,49,2.0,15.0,77,0.00,,OVC025,0.01,VWS V12.07,2013-11-18 15:52:00,
2013-11-18 09:54:00,25.8,19.6,29.80,NE,39,2.0,15.0,77,0.00,,OVC025,0.01,VWS V12.07,2013-11-18 15:54:00,
2013-11-18 09:55:00,26.0,19.8,29.80,NNE,13,2.0,15.0,77,0.00,,OVC025,0.01,VWS V12.07,2013-11-18 15:55:00,
2013-11-18 09:56:00,26.0,19.8,29.80,North,358,3.0,15.0,77,0.00,,OVC025,0.01,VWS V12.07,2013-11-18 15:56:00,
2013-11-18 09:57:00,26.0,19.5,29.80,West,261,2.0,15.0,76,0.00,,OVC025,0.01,VWS V12.07,2013-11-18 15:57:00,
2013-11-18 09:59:00,26.0,19.5,29.80,North,7,3.0,15.0,76,0.00,,OVC025,0.01,VWS V12.07,2013-11-18 15:59:00,
2013-11-18 10:01:00,26.0,19.5,29.80,WNW,296,1.0,15.0,76,0.00,,OVC025,0.01,VWS V12.07,2013-11-18 16:01:00,
2013-11-18 10:02:00,26.0,19.5,29.80,NW,323,0.0,15.0,76,0.00,,OVC025,0.01,VWS V12.07,2013-11-18 16:02:00,
2013-11-18 10:03:00,26.0,19.5,29.80,SW,221,0.0,15.0,76,0.00,,OVC025,0.01,VWS V12.07,2013-11-18 16:03:00,
2013-11-18 10:05:00,26.0,19.5,29.80,East,94,0.0,15.0,76,0.00,,OVC023,0.01,VWS V12.07,2013-11-18 16:05:00,
2013-11-18 10:06:00,26.0,19.5,29.80,ENE,63,0.0,15.0,76,0.00,,OVC023,0.01,VWS V12.07,2013-11-18 16:06:00,
2013-11-18 10:08:00,26.0,19.5,29.80,NNE,13,1.0,15.0,76,0.00,,OVC023,0.01,VWS V12.07,2013-11-18 16:08:00,
2013-11-18 10:09:00,26.0,19.5,29.80,ENE,60,0.0,15.0,76,0.00,,OVC025,0.01,VWS V12.07,2013-11-18 16:09:00,
2013-11-18 10:11:00,26.0,19.5,29.81,WNW,300,2.0,15.0,76,0.00,,OVC025,0.01,VWS V12.07,2013-11-18 16:11:00,
2013-11-18 10:13:00,26.0,19.5,29.81,NW,323,0.0,15.0,76,0.00,,OVC025,0.01,VWS V12.07,2013-11-18 16:13:00,
2013-11-18 10:14:00,26.0,19.2,29.81,WNW,287,3.0,15.0,75,0.00,,OVC025,0.01,VWS V12.07,2013-11-18 16:14:00,
2013-11-18 10:15:00,26.0,19.5,29.81,NNE,15,0.0,15.0,76,0.00,,OVC025,0.01,VWS V12.07,2013-11-18 16:15:00,
2013-11-18 10:16:00,26.0,19.5,29.81,West,270,2.0,15.0,76,0.00,,OVC025,0.01,VWS V12.07,2013-11-18 16:16:00,
2013-11-18 10:18:00,26.0,19.5,29.81,SSW,200,7.0,19.0,76,0.00,,OVC025,0.01,VWS V12.07,2013-11-18 16:18:00,
2013-11-18 10:20:00,26.0,19.5,29.81,NNW,330,5.0,19.0,76,0.00,,OVC025,0.01,VWS V12.07,2013-11-18 16:20:00,
2013-11-18 10:21:00,26.0,19.5,29.81,South,169,2.0,19.0,76,0.00,,OVC025,0.01,VWS V12.07,2013-11-18 16:21:00,
2013-11-18 10:22:00,26.0,19.5,29.81,WSW,256,1.0,19.0,76,0.00,,OVC025,0.01,VWS V12.07,2013-11-18 16:22:00,
2013-11-18 10:24:00,26.0,19.5,29.81,ENE,67,2.0,19.0,76,0.00,,OVC025,0.01,VWS V12.07,2013-11-18 16:24:00,
2013-11-18 10:25:00,26.0,19.5,29.81,WSW,252,0.0,19.0,76,0.00,,OVC025,0.01,VWS V12.07,2013-11-18 16:25:00,
2013-11-18 10:26:00,26.0,19.5,29.83,WSW,257,0.0,19.0,76,0.00,,OVC025,0.01,VWS V12.07,2013-11-18 16:26:00,
2013-11-18 10:27:00,26.1,19.9,29.83,WSW,247,1.0,19.0,77,0.00,,OVC025,0.01,VWS V12.07,2013-11-18 16:27:00,
2013-11-18 10:29:00,26.1,19.6,29.83,WNW,302,0.0,19.0,76,0.00,,OVC025,0.01,VWS V12.07,2013-11-18 16:29:00,
2013-11-18 10:30:00,26.1,19.6,29.83,NW,326,2.0,19.0,76,0.00,,OVC025,0.01,VWS V12.07,2013-11-18 16:30:00,
2013-11-18 10:31:00,26.1,19.6,29.83,WNW,282,1.0,19.0,76,0.00,,OVC025,0.01,VWS V12.07,2013-11-18 16:31:00,
2013-11-18 10:32:00,26.1,19.6,29.83,NW,314,1.0,19.0,76,0.00,,OVC025,0.01,VWS V12.07,2013-11-18 16:32:00,
2013-11-18 10:35:00,26.1,19.6,29.83,SSE,158,2.0,19.0,76,0.00,,OVC025,0.01,VWS V12.07,2013-11-18 16:35:00,
2013-11-18 10:36:00,26.1,19.6,29.83,NNW,343,2.0,19.0,76,0.00,,OVC025,0.01,VWS V12.07,2013-11-18 16:36:00,
2013-11-18 10:37:00,26.3,19.8,29.83,SSW,195,0.0,19.0,76,0.00,,OVC025,0.01,VWS V12.07,2013-11-18 16:37:00,
2013-11-18 10:38:00,26.3,19.8,29.83,SSW,203,0.0,19.0,76,0.00,,OVC025,0.01,VWS V12.07,2013-11-18 16:38:00,
2013-11-18 10:40:00,26.3,20.1,29.83,North,3,2.0,19.0,77,0.00,,OVC025,0.01,VWS V12.07,2013-11-18 16:40:00,
2013-11-18 10:41:00,26.3,19.8,29.83,North,349,5.0,19.0,76,0.00,,OVC025,0.01,VWS V12.07,2013-11-18 16:41:00,
2013-11-18 10:42:00,26.3,19.5,29.83,North,354,1.0,19.0,75,0.00,,OVC025,0.01,VWS V12.07,2013-11-18 16:42:00,
2013-11-18 10:43:00,26.3,19.5,29.83,WSW,244,2.0,19.0,75,0.00,,OVC025,0.01,VWS V12.07,2013-11-18 16:43:00,
2013-11-18 10:45:00,26.3,19.8,29.83,NE,51,0.0,19.0,76,0.00,,OVC025,0.01,VWS V12.07,2013-11-18 16:45:00,
2013-11-18 10:46:00,26.3,19.8,29.83,North,351,0.0,19.0,76,0.00,,OVC025,0.01,VWS V12.07,2013-11-18 16:46:00,
2013-11-18 10:47:00,26.3,19.5,29.83,NW,321,0.0,19.0,75,0.00,,OVC025,0.01,VWS V12.07,2013-11-18 16:47:00,
2013-11-18 10:48:00,26.3,19.8,29.83,NW,321,2.0,19.0,76,0.00,,OVC025,0.01,VWS V12.07,2013-11-18 16:48:00,
2013-11-18 10:49:00,26.3,19.5,29.83,NW,309,2.0,19.0,75,0.00,,OVC025,0.01,VWS V12.07,2013-11-18 16:49:00,
2013-11-18 10:51:00,26.4,19.6,29.83,NE,51,5.0,19.0,75,0.00,,OVC025,0.01,VWS V12.07,2013-11-18 16:51:00,
2013-11-18 10:52:00,26.4,19.9,29.83,SSW,208,2.0,19.0,76,0.00,,OVC025,0.01,VWS V12.07,2013-11-18 16:52:00,
2013-11-18 10:53:00,26.4,19.9,29.83,WSW,248,0.0,19.0,76,0.00,,OVC025,0.01,VWS V12.07,2013-11-18 16:53:00,
2013-11-18 10:54:00,26.4,19.6,29.83,WNW,297,0.0,19.0,75,0.00,,OVC025,0.01,VWS V12.07,2013-11-18 16:54:00,
2013-11-18 10:55:00,26.4,19.6,29.83,NW,310,0.0,19.0,75,0.00,,OVC025,0.01,VWS V12.07,2013-11-18 16:55:00,
2013-11-18 10:56:00,26.4,19.6,29.85,NW,316,2.0,19.0,75,0.00,,OVC025,0.01,VWS V12.07,2013-11-18 16:56:00,
2013-11-18 10:57:00,26.4,19.2,29.85,SSW,198,2.0,19.0,74,0.00,,OVC025,0.01,VWS V12.07,2013-11-18 16:57:00,
2013-11-18 10:58:00,26.4,19.2,29.85,NNE,13,0.0,19.0,74,0.00,,OVC025,0.01,VWS V12.07,2013-11-18 16:58:00,
2013-11-18 10:59:00,26.4,19.2,29.85,NNW,335,0.0,19.0,74,0.00,,OVC025,0.01,VWS V12.07,2013-11-18 16:59:00,
2013-11-18 11:00:00,26.4,19.6,29.85,NNW,335,1.0,19.0,75,0.00,,OVC025,0.01,VWS V12.07,2013-11-18 17:00:00,
2013-11-18 11:02:00,26.4,19.6,29.85,West,276,2.0,19.0,75,0.00,,OVC025,0.01,VWS V12.07,2013-11-18 17:02:00,
2013-11-18 11:03:00,26.4,19.6,29.85,West,276,0.0,19.0,75,0.00,,OVC025,0.01,VWS V12.07,2013-11-18 17:03:00,
2013-11-18 11:04:00,26.4,19.6,29.85,West,276,0.0,19.0,75,0.00,,OVC025,0.01,VWS V12.07,2013-11-18 17:04:00,
2013-11-18 11:05:00,26.4,19.6,29.85,SW,215,2.0,19.0,75,0.00,,OVC025,0.01,VWS V12.07,2013-11-18 17:05:00,
2013-11-18 11:08:00,26.4,19.6,29.85,NW,326,1.0,19.0,75,0.00,,OVC025,0.01,VWS V12.07,2013-11-18 17:08:00,
2013-11-18 11:09:00,26.6,19.8,29.85,SSW,211,2.0,19.0,75,0.00,,OVC025,0.01,VWS V12.07,2013-11-18 17:09:00,
2013-11-18 11:10:00,26.6,19.8,29.85,SSW,211,0.0,19.0,75,0.00,,OVC025,0.01,VWS V12.07,2013-11-18 17:10:00,
2013-11-18 11:11:00,26.6,19.4,29.86,WSW,252,3.0,19.0,74,0.00,,OVC025,0.01,VWS V12.07,2013-11-18 17:11:00,
2013-11-18 11:13:00,26.4,19.6,29.86,SW,217,2.0,19.0,75,0.00,,OVC025,0.01,VWS V12.07,2013-11-18 17:13:00,
2013-11-18 11:14:00,26.4,19.6,29.86,West,260,0.0,19.0,75,0.00,,OVC025,0.01,VWS V12.07,2013-11-18 17:14:00,
2013-11-18 11:15:00,26.6,19.8,29.86,NW,323,4.0,19.0,75,0.00,,OVC025,0.01,VWS V12.07,2013-11-18 17:15:00,
2013-11-18 11:16:00,26.6,19.4,29.86,West,266,1.0,19.0,74,0.00,,OVC025,0.01,VWS V12.07,2013-11-18 17:16:00,
2013-11-18 11:18:00,26.6,19.8,29.86,West,276,1.0,19.0,75,0.00,,OVC025,0.01,VWS V12.07,2013-11-18 17:18:00,
2013-11-18 11:19:00,26.6,19.4,29.86,NW,323,2.0,19.0,74,0.00,,OVC025,0.01,VWS V12.07,2013-11-18 17:19:00,
2013-11-18 11:20:00,26.6,19.4,29.86,North,358,1.0,19.0,74,0.00,,OVC025,0.01,VWS V12.07,2013-11-18 17:20:00,
2013-11-18 11:21:00,26.7,19.5,29.86,WNW,297,3.0,19.0,74,0.00,,OVC025,0.01,VWS V12.07,2013-11-18 17:21:00,
2013-11-18 11:23:00,26.7,19.5,29.86,WNW,300,1.0,19.0,74,0.00,,OVC025,0.01,VWS V12.07,2013-11-18 17:23:00,
2013-11-18 11:24:00,26.7,19.5,29.86,West,269,2.0,19.0,74,0.00,,OVC025,0.01,VWS V12.07,2013-11-18 17:24:00,
2013-11-18 11:25:00,26.7,19.2,29.86,WSW,253,0.0,19.0,73,0.00,,OVC025,0.01,VWS V12.07,2013-11-18 17:25:00,
2013-11-18 11:26:00,26.7,19.2,29.87,WSW,253,0.0,19.0,73,0.00,,OVC025,0.01,VWS V12.07,2013-11-18 17:26:00,
2013-11-18 11:27:00,26.7,19.2,29.87,NNW,333,3.0,19.0,73,0.00,,OVC025,0.01,VWS V12.07,2013-11-18 17:27:00,
2013-11-18 11:28:00,26.7,19.2,29.87,NW,307,3.0,19.0,73,0.00,,OVC025,0.01,VWS V12.07,2013-11-18 17:28:00,
2013-11-18 11:29:00,26.7,19.2,29.87,NW,307,0.0,19.0,73,0.00,,OVC025,0.01,VWS V12.07,2013-11-18 17:29:00,
2013-11-18 11:30:00,26.7,19.2,29.87,West,262,0.0,19.0,73,0.00,,OVC025,0.01,VWS V12.07,2013-11-18 17:30:00,
2013-11-18 11:31:00,26.7,19.2,29.87,WSW,251,2.0,19.0,73,0.00,,OVC025,0.01,VWS V12.07,2013-11-18 17:31:00,
2013-11-18 11:32:00,26.7,19.5,29.87,WSW,251,0.0,19.0,74,0.00,,OVC025,0.01,VWS V12.07,2013-11-18 17:32:00,
2013-11-18 11:34:00,26.7,19.9,29.87,NNW,333,0.0,19.0,75,0.00,,OVC025,0.01,VWS V12.07,2013-11-18 17:34:00,
2013-11-18 11:35:00,26.7,19.5,29.87,NNW,345,3.0,19.0,74,0.00,,OVC025,0.01,VWS V12.07,2013-11-18 17:35:00,
2013-11-18 11:36:00,26.7,19.9,29.87,WNW,289,5.0,19.0,75,0.00,,OVC025,0.01,VWS V12.07,2013-11-18 17:36:00,
2013-11-18 11:37:00,26.6,19.8,29.87,NNE,24,0.0,19.0,75,0.00,,OVC025,0.01,VWS V12.07,2013-11-18 17:37:00,
2013-11-18 11:40:00,26.6,19.8,29.87,SSW,211,1.0,19.0,75,0.00,,OVC025,0.01,VWS V12.07,2013-11-18 17:40:00,
2013-11-18 11:41:00,26.6,20.1,29.88,WNW,293,3.0,19.0,76,0.00,,OVC025,0.01,VWS V12.07,2013-11-18 17:41:00,
2013-11-18 11:42:00,26.7,20.2,29.88,WSW,237,0.0,19.0,76,0.00,,OVC025,0.01,VWS V12.07,2013-11-18 17:42:00,
2013-11-18 11:45:00,26.7,20.2,29.88,WNW,288,1.0,19.0,76,0.00,,OVC025,0.01,VWS V12.07,2013-11-18 17:45:00,
2013-11-18 11:46:00,26.7,20.2,29.88,North,351,0.0,19.0,76,0.00,,OVC025,0.01,VWS V12.07,2013-11-18 17:46:00,
2013-11-18 11:47:00,26.7,19.9,29.88,West,265,2.0,19.0,75,0.00,,OVC025,0.01,VWS V12.07,2013-11-18 17:47:00,
2013-11-18 11:48:00,26.7,19.9,29.88,WNW,300,3.0,19.0,75,0.00,,OVC025,0.01,VWS V12.07,2013-11-18 17:48:00,
2013-11-18 11:50:00,26.6,19.8,29.88,North,356,1.0,19.0,75,0.00,,OVC025,0.01,VWS V12.07,2013-11-18 17:50:00,
2013-11-18 11:51:00,26.6,19.8,29.88,NE,54,3.0,19.0,75,0.00,,OVC025,0.01,VWS V12.07,2013-11-18 17:51:00,
2013-11-18 11:53:00,26.6,20.1,29.88,West,276,3.0,19.0,76,0.00,,OVC025,0.01,VWS V12.07,2013-11-18 17:53:00,
2013-11-18 11:54:00,26.6,20.1,29.88,NNE,16,0.0,19.0,76,0.00,,OVC025,0.01,VWS V12.07,2013-11-18 17:54:00,
2013-11-18 11:55:00,26.6,20.4,29.88,WNW,290,0.0,19.0,77,0.00,,OVC025,0.01,VWS V12.07,2013-11-18 17:55:00,
2013-11-18 11:56:00,26.6,20.4,29.88,WNW,290,0.0,19.0,77,0.00,,OVC025,0.01,VWS V12.07,2013-11-18 17:56:00,
2013-11-18 11:57:00,26.6,20.4,29.88,WNW,290,1.0,19.0,77,0.00,,OVC025,0.01,VWS V12.07,2013-11-18 17:57:00,
2013-11-18 11:58:00,26.6,20.1,29.88,WNW,288,0.0,19.0,76,0.00,,OVC025,0.01,VWS V12.07,2013-11-18 17:58:00,
2013-11-18 11:59:00,26.6,20.1,29.88,North,1,3.0,19.0,76,0.00,,OVC025,0.01,VWS V12.07,2013-11-18 17:59:00,
2013-11-18 12:01:00,26.7,20.5,29.88,North,358,2.0,19.0,77,0.00,,OVC025,0.01,VWS V12.07,2013-11-18 18:01:00,
2013-11-18 12:02:00,26.7,20.5,29.88,North,0,2.0,19.0,77,0.00,,OVC025,0.01,VWS V12.07,2013-11-18 18:02:00,
2013-11-18 12:03:00,26.6,20.1,29.88,West,280,2.0,19.0,76,0.00,,OVC025,0.01,VWS V12.07,2013-11-18 18:03:00,
2013-11-18 12:04:00,26.6,20.1,29.88,NW,322,3.0,19.0,76,0.00,,OVC025,0.01,VWS V12.07,2013-11-18 18:04:00,
2013-11-18 12:07:00,26.6,20.1,29.88,WNW,300,0.0,19.0,76,0.00,,OVC025,0.01,VWS V12.07,2013-11-18 18:07:00,
2013-11-18 12:08:00,26.6,19.8,29.88,NNW,347,1.0,19.0,75,0.00,,OVC025,0.01,VWS V12.07,2013-11-18 18:08:00,
2013-11-18 12:10:00,26.6,19.8,29.88,NNW,347,0.0,19.0,75,0.00,,OVC025,0.01,VWS V12.07,2013-11-18 18:10:00,
2013-11-18 12:12:00,26.6,19.8,29.90,NE,46,1.0,19.0,75,0.00,,OVC025,0.01,VWS V12.07,2013-11-18 18:12:00,
2013-11-18 12:13:00,26.6,19.8,29.90,WNW,300,2.0,19.0,75,0.00,,OVC025,0.01,VWS V12.07,2013-11-18 18:13:00,
2013-11-18 12:15:00,26.6,19.8,29.90,NNE,31,1.0,19.0,75,0.00,,OVC025,0.01,VWS V12.07,2013-11-18 18:15:00,
2013-11-18 12:17:00,26.4,19.6,29.90,West,264,5.0,19.0,75,0.00,,OVC025,0.01,VWS V12.07,2013-11-18 18:17:00,
2013-11-18 12:18:00,26.4,19.6,29.90,North,358,2.0,19.0,75,0.00,,OVC025,0.01,VWS V12.07,2013-11-18 18:18:00,
2013-11-18 12:19:00,26.4,19.6,29.90,NW,320,0.0,19.0,75,0.00,,OVC025,0.01,VWS V12.07,2013-11-18 18:19:00,
2013-11-18 12:20:00,26.4,19.6,29.90,SE,132,1.0,19.0,75,0.00,,OVC025,0.01,VWS V12.07,2013-11-18 18:20:00,
2013-11-18 12:22:00,26.4,19.9,29.90,NNW,328,2.0,19.0,76,0.00,,OVC025,0.01,VWS V12.07,2013-11-18 18:22:00,
2013-11-18 12:24:00,26.4,20.2,29.90,WNW,285,0.0,19.0,77,0.00,,OVC025,0.01,VWS V12.07,2013-11-18 18:24:00,
2013-11-18 12:25:00,26.4,19.6,29.90,West,274,0.0,19.0,75,0.00,,OVC025,0.01,VWS V12.07,2013-11-18 18:25:00,
2013-11-18 12:26:00,26.4,19.6,29.91,WNW,282,4.0,19.0,75,0.00,,OVC025,0.01,VWS V12.07,2013-11-18 18:26:00,
2013-11-18 12:27:00,26.4,19.9,29.91,SW,229,2.0,19.0,76,0.00,,OVC025,0.01,VWS V12.07,2013-11-18 18:27:00,
2013-11-18 12:28:00,26.3,19.8,29.91,SW,229,0.0,19.0,76,0.00,,OVC025,0.01,VWS V12.07,2013-11-18 18:28:00,
2013-11-18 12:29:00,26.3,19.8,29.91,NW,323,3.0,19.0,76,0.00,,OVC025,0.01,VWS V12.07,2013-11-18 18:29:00,
2013-11-18 12:30:00,26.3,19.8,29.91,NW,307,1.0,19.0,76,0.00,,OVC025,0.01,VWS V12.07,2013-11-18 18:30:00,
2013-11-18 12:31:00,26.3,19.8,29.91,NW,307,0.0,19.0,76,0.00,,OVC025,0.01,VWS V12.07,2013-11-18 18:31:00,
2013-11-18 12:32:00,26.3,19.5,29.91,West,273,5.0,19.0,75,0.00,,OVC025,0.01,VWS V12.07,2013-11-18 18:32:00,
2013-11-18 12:33:00,26.3,19.5,29.91,WNW,299,0.0,19.0,75,0.00,,OVC025,0.01,VWS V12.07,2013-11-18 18:33:00,
2013-11-18 12:34:00,26.3,19.5,29.91,WSW,242,1.0,19.0,75,0.00,,OVC025,0.01,VWS V12.07,2013-11-18 18:34:00,
2013-11-18 12:35:00,26.3,19.8,29.91,NW,323,0.0,19.0,76,0.00,,OVC025,0.01,VWS V12.07,2013-11-18 18:35:00,
2013-11-18 12:36:00,26.3,19.8,29.91,NW,323,0.0,19.0,76,0.00,,OVC025,0.01,VWS V12.07,2013-11-18 18:36:00,
2013-11-18 12:37:00,26.3,19.8,29.91,SSW,198,1.0,19.0,76,0.00,,OVC025,0.01,VWS V12.07,2013-11-18 18:37:00,
2013-11-18 12:39:00,26.3,20.1,29.91,NW,305,2.0,19.0,77,0.00,,OVC025,0.01,VWS V12.07,2013-11-18 18:39:00,
2013-11-18 12:40:00,26.3,19.8,29.91,WNW,297,0.0,19.0,76,0.00,,OVC025,0.01,VWS V12.07,2013-11-18 18:40:00,
2013-11-18 12:41:00,26.3,19.8,29.92,SW,236,0.0,19.0,76,0.00,,OVC025,0.01,VWS V12.07,2013-11-18 18:41:00,
2013-11-18 12:43:00,26.3,19.8,29.92,WNW,296,2.0,19.0,76,0.00,,OVC025,0.01,VWS V12.07,2013-11-18 18:43:00,
2013-11-18 12:44:00,26.3,19.8,29.92,WNW,293,0.0,19.0,76,0.00,,OVC025,0.01,VWS V12.07,2013-11-18 18:44:00,
2013-11-18 12:45:00,26.4,19.9,29.92,NNW,340,1.0,19.0,76,0.00,,OVC025,0.01,VWS V12.07,2013-11-18 18:45:00,
2013-11-18 12:46:00,26.4,19.9,29.92,NNW,340,2.0,19.0,76,0.00,,OVC025,0.01,VWS V12.07,2013-11-18 18:46:00,
2013-11-18 12:48:00,26.4,19.9,29.92,North,0,0.0,19.0,76,0.00,,OVC025,0.01,VWS V12.07,2013-11-18 18:48:00,
2013-11-18 12:49:00,26.4,19.6,29.92,NE,39,3.0,19.0,75,0.00,,,0.01,VWS V12.07,2013-11-18 18:49:00,
2013-11-18 12:51:00,26.4,19.9,29.92,WNW,291,2.0,19.0,76,0.00,,,0.01,VWS V12.07,2013-11-18 18:51:00,
2013-11-18 12:53:00,26.4,19.2,29.92,WNW,295,2.0,19.0,74,0.00,,,0.01,VWS V12.07,2013-11-18 18:53:00,
2013-11-18 12:54:00,26.4,19.6,29.92,WNW,302,0.0,19.0,75,0.00,,,0.01,VWS V12.07,2013-11-18 18:54:00,
2013-11-18 12:55:00,26.4,19.6,29.92,WNW,288,1.0,19.0,75,0.00,,,0.01,VWS V12.07,2013-11-18 18:55:00,
2013-11-18 12:56:00,26.4,19.2,29.93,North,352,0.0,19.0,74,0.00,,,0.01,VWS V12.07,2013-11-18 18:56:00,
2013-11-18 12:59:00,26.4,18.9,29.93,NNW,338,3.0,19.0,73,0.00,,,0.01,VWS V12.07,2013-11-18 18:59:00,
2013-11-18 13:00:00,26.4,18.9,29.93,West,262,4.0,19.0,73,0.00,,,0.01,VWS V12.07,2013-11-18 19:00:00,
2013-11-18 13:01:00,26.4,18.9,29.93,SSW,203,1.0,19.0,73,0.00,,,0.01,VWS V12.07,2013-11-18 19:01:00,
2013-11-18 13:02:00,26.4,18.9,29.93,SSW,203,0.0,19.0,73,0.00,,,0.01,VWS V12.07,2013-11-18 19:02:00,
2013-11-18 13:04:00,26.4,18.9,29.93,NNW,342,1.0,19.0,73,0.00,,OVC031,0.01,VWS V12.07,2013-11-18 19:04:00,
2013-11-18 13:05:00,26.4,18.9,29.93,WNW,297,0.0,19.0,73,0.00,,OVC031,0.01,VWS V12.07,2013-11-18 19:05:00,
2013-11-18 13:06:00,26.4,18.9,29.93,West,271,0.0,19.0,73,0.00,,OVC031,0.01,VWS V12.07,2013-11-18 19:06:00,
2013-11-18 13:07:00,26.4,18.6,29.93,WNW,295,0.0,19.0,72,0.00,,OVC031,0.01,VWS V12.07,2013-11-18 19:07:00,
2013-11-18 13:10:00,26.4,18.6,29.93,WNW,295,0.0,19.0,72,0.00,,,0.01,VWS V12.07,2013-11-18 19:10:00,
2013-11-18 13:11:00,26.4,18.6,29.94,NW,305,0.0,19.0,72,0.00,,,0.01,VWS V12.07,2013-11-18 19:11:00,
2013-11-18 13:12:00,26.4,18.6,29.94,NNW,330,2.0,19.0,72,0.00,,,0.01,VWS V12.07,2013-11-18 19:12:00,
2013-11-18 13:13:00,26.4,18.6,29.94,West,279,0.0,19.0,72,0.00,,,0.01,VWS V12.07,2013-11-18 19:13:00,
2013-11-18 13:15:00,26.4,18.6,29.94,WSW,243,0.0,19.0,72,0.00,,,0.01,VWS V12.07,2013-11-18 19:15:00,
2013-11-18 13:16:00,26.6,19.1,29.94,WSW,245,1.0,19.0,73,0.00,,,0.01,VWS V12.07,2013-11-18 19:16:00,
2013-11-18 13:17:00,26.6,19.1,29.94,NNE,28,0.0,19.0,73,0.00,,,0.01,VWS V12.07,2013-11-18 19:17:00,
2013-11-18 13:18:00,26.6,18.8,29.94,NNW,348,0.0,19.0,72,0.00,,,0.01,VWS V12.07,2013-11-18 19:18:00,
2013-11-18 13:19:00,26.6,18.8,29.94,West,267,3.0,19.0,72,0.00,,,0.01,VWS V12.07,2013-11-18 19:19:00,
2013-11-18 13:20:00,26.6,18.8,29.94,SW,224,0.0,19.0,72,0.00,,,0.01,VWS V12.07,2013-11-18 19:20:00,
2013-11-18 13:22:00,26.6,19.1,29.94,North,357,3.0,19.0,73,0.00,,,0.01,VWS V12.07,2013-11-18 19:22:00,
2013-11-18 13:23:00,26.6,19.1,29.94,WNW,288,1.0,19.0,73,0.00,,,0.01,VWS V12.07,2013-11-18 19:23:00,
2013-11-18 13:24:00,26.6,19.1,29.94,WNW,288,0.0,19.0,73,0.00,,,0.01,VWS V12.07,2013-11-18 19:24:00,
2013-11-18 13:25:00,26.7,19.2,29.94,West,265,0.0,19.0,73,0.00,,,0.01,VWS V12.07,2013-11-18 19:25:00,
2013-11-18 13:27:00,26.7,19.2,29.94,West,263,2.0,19.0,73,0.00,,,0.01,VWS V12.07,2013-11-18 19:27:00,
2013-11-18 13:28:00,26.6,19.1,29.94,West,264,0.0,19.0,73,0.00,,,0.01,VWS V12.07,2013-11-18 19:28:00,
2013-11-18 13:29:00,26.6,19.1,29.94,North,0,4.0,19.0,73,0.00,,,0.01,VWS V12.07,2013-11-18 19:29:00,
2013-11-18 13:30:00,26.6,19.1,29.94,South,179,2.0,19.0,73,0.00,,,0.01,VWS V12.07,2013-11-18 19:30:00,
2013-11-18 13:32:00,26.6,19.1,29.94,WNW,290,2.0,19.0,73,0.00,,OVC025,0.01,VWS V12.07,2013-11-18 19:32:00,
2013-11-18 13:34:00,26.6,19.1,29.94,West,270,0.0,19.0,73,0.00,,OVC025,0.01,VWS V12.07,2013-11-18 19:34:00,
2013-11-18 13:35:00,26.6,19.1,29.94,WSW,254,0.0,19.0,73,0.00,,OVC025,0.01,VWS V12.07,2013-11-18 19:35:00,
2013-11-18 13:37:00,26.6,19.1,29.94,SSW,196,0.0,19.0,73,0.00,,OVC025,0.01,VWS V12.07,2013-11-18 19:37:00,
2013-11-18 13:38:00,26.6,19.4,29.94,SSW,196,0.0,19.0,74,0.00,,OVC025,0.01,VWS V12.07,2013-11-18 19:38:00,
2013-11-18 13:39:00,26.6,19.4,29.94,NNW,330,0.0,19.0,74,0.00,,OVC025,0.01,VWS V12.07,2013-11-18 19:39:00,
2013-11-18 13:40:00,26.6,19.1,29.94,North,354,2.0,19.0,73,0.00,,OVC025,0.01,VWS V12.07,2013-11-18 19:40:00,
2013-11-18 13:41:00,26.6,19.1,29.95,NW,326,0.0,19.0,73,0.00,,OVC025,0.01,VWS V12.07,2013-11-18 19:41:00,
2013-11-18 13:42:00,26.6,19.1,29.95,NW,326,0.0,19.0,73,0.00,,OVC025,0.01,VWS V12.07,2013-11-18 19:42:00,
2013-11-18 13:43:00,26.6,19.1,29.95,West,262,4.0,19.0,73,0.00,,OVC025,0.01,VWS V12.07,2013-11-18 19:43:00,
2013-11-18 13:45:00,26.4,18.9,29.95,WNW,292,0.0,19.0,73,0.00,,OVC025,0.01,VWS V12.07,2013-11-18 19:45:00,
2013-11-18 13:46:00,26.4,18.9,29.95,West,266,0.0,19.0,73,0.00,,OVC025,0.01,VWS V12.07,2013-11-18 19:46:00,
2013-11-18 13:47:00,26.4,18.9,29.95,West,266,0.0,19.0,73,0.00,,OVC025,0.01,VWS V12.07,2013-11-18 19:47:00,
2013-11-18 13:48:00,26.6,19.4,29.95,North,1,4.0,19.0,74,0.00,,OVC029,0.01,VWS V12.07,2013-11-18 19:48:00,
2013-11-18 13:49:00,26.6,19.4,29.95,WNW,293,0.0,19.0,74,0.00,,OVC029,0.01,VWS V12.07,2013-11-18 19:49:00,
2013-11-18 13:50:00,26.6,19.4,29.95,West,265,0.0,19.0,74,0.00,,OVC029,0.01,VWS V12.07,2013-11-18 19:50:00,
2013-11-18 13:51:00,26.6,19.4,29.95,West,264,3.0,19.0,74,0.00,,OVC029,0.01,VWS V12.07,2013-11-18 19:51:00,
2013-11-18 13:52:00,26.6,19.1,29.95,WNW,282,0.0,19.0,73,0.00,,OVC029,0.01,VWS V12.07,2013-11-18 19:52:00,
2013-11-18 13:53:00,26.6,19.1,29.95,WNW,295,2.0,19.0,73,0.00,,OVC029,0.01,VWS V12.07,2013-11-18 19:53:00,
2013-11-18 13:54:00,26.6,19.1,29.95,North,3,0.0,19.0,73,0.00,,OVC029,0.01,VWS V12.07,2013-11-18 19:54:00,
2013-11-18 13:56:00,26.6,19.1,29.95,North,351,0.0,19.0,73,0.00,,OVC029,0.01,VWS V12.07,2013-11-18 19:56:00,
2013-11-18 13:57:00,26.6,19.1,29.95,NNE,18,1.0,19.0,73,0.00,,OVC029,0.01,VWS V12.07,2013-11-18 19:57:00,
2013-11-18 13:58:00,26.6,19.1,29.95,WNW,288,2.0,19.0,73,0.00,,OVC029,0.01,VWS V12.07,2013-11-18 19:58:00,
2013-11-18 13:59:00,26.6,19.1,29.95,WSW,244,4.0,19.0,73,0.00,,OVC029,0.01,VWS V12.07,2013-11-18 19:59:00,
2013-11-18 14:01:00,26.6,19.1,29.95,NW,321,1.0,19.0,73,0.00,,OVC029,0.01,VWS V12.07,2013-11-18 20:01:00,
2013-11-18 14:02:00,26.6,19.1,29.95,North,3,3.0,19.0,73,0.00,,OVC029,0.01,VWS V12.07,2013-11-18 20:02:00,
2013-11-18 14:03:00,26.6,19.1,29.95,NE,34,3.0,19.0,73,0.00,,OVC029,0.01,VWS V12.07,2013-11-18 20:03:00,
2013-11-18 14:04:00,26.6,19.4,29.95,WNW,282,2.0,19.0,74,0.00,,OVC025,0.01,VWS V12.07,2013-11-18 20:04:00,
2013-11-18 14:07:00,26.6,19.1,29.95,North,0,2.0,19.0,73,0.00,,OVC025,0.01,VWS V12.07,2013-11-18 20:07:00,
2013-11-18 14:09:00,26.4,18.9,29.95,NNW,340,2.0,19.0,73,0.00,,OVC029,0.01,VWS V12.07,2013-11-18 20:09:00,
2013-11-18 14:10:00,26.4,18.9,29.95,West,270,0.0,19.0,73,0.00,,OVC029,0.01,VWS V12.07,2013-11-18 20:10:00,
2013-11-18 14:12:00,26.4,18.9,29.97,WNW,293,2.0,19.0,73,0.00,,OVC029,0.01,VWS V12.07,2013-11-18 20:12:00,
2013-11-18 14:13:00,26.4,18.9,29.97,North,11,2.0,19.0,73,0.00,,OVC029,0.01,VWS V12.07,2013-11-18 20:13:00,
2013-11-18 14:14:00,26.4,18.9,29.97,West,272,0.0,19.0,73,0.00,,OVC029,0.01,VWS V12.07,2013-11-18 20:14:00,
2013-11-18 14:15:00,26.4,18.9,29.97,NW,326,0.0,19.0,73,0.00,,OVC029,0.01,VWS V12.07,2013-11-18 20:15:00,
2013-11-18 14:18:00,26.4,18.9,29.97,NNE,27,0.0,19.0,73,0.00,,OVC029,0.01,VWS V12.07,2013-11-18 20:18:00,
2013-11-18 14:19:00,26.4,18.9,29.97,NW,304,0.0,19.0,73,0.00,,OVC029,0.01,VWS V12.07,2013-11-18 20:19:00,
2013-11-18 14:20:00,26.4,18.9,29.97,NW,304,2.0,19.0,73,0.00,,OVC029,0.01,VWS V12.07,2013-11-18 20:20:00,
2013-11-18 14:21:00,26.4,18.9,29.97,WNW,303,0.0,19.0,73,0.00,,OVC029,0.01,VWS V12.07,2013-11-18 20:21:00,
2013-11-18 14:23:00,26.4,19.2,29.97,East,97,0.0,19.0,74,0.00,,OVC029,0.01,VWS V12.07,2013-11-18 20:23:00,
2013-11-18 14:24:00,26.4,18.9,29.97,NE,37,2.0,19.0,73,0.00,,OVC029,0.01,VWS V12.07,2013-11-18 20:24:00,
2013-11-18 14:25:00,26.4,18.9,29.97,NE,37,1.0,19.0,73,0.00,,OVC029,0.01,VWS V12.07,2013-11-18 20:25:00,
2013-11-18 14:26:00,26.4,19.2,29.98,NNW,336,2.0,19.0,74,0.00,,OVC029,0.01,VWS V12.07,2013-11-18 20:26:00,
2013-11-18 14:29:00,26.4,18.9,29.98,East,84,2.0,19.0,73,0.00,,OVC029,0.01,VWS V12.07,2013-11-18 20:29:00,
2013-11-18 14:30:00,26.4,18.9,29.98,NE,34,2.0,19.0,73,0.00,,OVC029,0.01,VWS V12.07,2013-11-18 20:30:00,
2013-11-18 14:31:00,26.4,19.2,29.98,North,1,0.0,19.0,74,0.00,,OVC029,0.01,VWS V12.07,2013-11-18 20:31:00,
2013-11-18 14:32:00,26.4,19.2,29.98,North,1,1.0,19.0,74,0.00,,OVC025,0.01,VWS V12.07,2013-11-18 20:32:00,
2013-11-18 14:34:00,26.3,18.8,29.98,NNE,13,0.0,19.0,73,0.00,,OVC025,0.01,VWS V12.07,2013-11-18 20:34:00,
2013-11-18 14:35:00,26.3,18.8,29.98,North,358,1.0,19.0,73,0.00,,OVC025,0.01,VWS V12.07,2013-11-18 20:35:00,
2013-11-18 14:36:00,26.4,19.2,29.98,NNW,345,0.0,19.0,74,0.00,,OVC025,0.01,VWS V12.07,2013-11-18 20:36:00,
2013-11-18 14:37:00,26.4,19.2,29.98,WSW,245,3.0,19.0,74,0.00,,OVC025,0.01,VWS V12.07,2013-11-18 20:37:00,
2013-11-18 14:39:00,26.3,18.2,29.98,NW,307,0.0,19.0,71,0.00,,OVC025,0.01,VWS V12.07,2013-11-18 20:39:00,
2013-11-18 14:40:00,26.3,18.2,29.98,WNW,293,1.0,19.0,71,0.00,,OVC025,0.01,VWS V12.07,2013-11-18 20:40:00,
2013-11-18 14:41:00,26.3,18.5,29.99,WSW,256,2.0,19.0,72,0.00,,OVC025,0.01,VWS V12.07,2013-11-18 20:41:00,
2013-11-18 14:43:00,26.3,18.2,29.99,WNW,294,2.0,19.0,71,0.00,,OVC025,0.01,VWS V12.07,2013-11-18 20:43:00,
2013-11-18 14:44:00,26.3,18.2,29.99,NNE,14,2.0,19.0,71,0.00,,OVC025,0.01,VWS V12.07,2013-11-18 20:44:00,
2013-11-18 14:45:00,26.3,18.2,29.99,NNW,343,0.0,19.0,71,0.00,,OVC025,0.01,VWS V12.07,2013-11-18 20:45:00,
2013-11-18 14:48:00,26.3,18.5,29.99,NNE,25,0.0,19.0,72,0.00,,OVC025,0.01,VWS V12.07,2013-11-18 20:48:00,
2013-11-18 14:49:00,26.3,18.2,29.99,NNE,25,0.0,19.0,71,0.00,,OVC025,0.01,VWS V12.07,2013-11-18 20:49:00,
2013-11-18 14:50:00,26.3,18.5,29.99,NNE,25,0.0,19.0,72,0.00,,OVC025,0.01,VWS V12.07,2013-11-18 20:50:00,
2013-11-18 14:51:00,26.3,18.5,29.99,ESE,118,0.0,19.0,72,0.00,,OVC025,0.01,VWS V12.07,2013-11-18 20:51:00,
2013-11-18 14:53:00,26.4,18.9,29.99,WNW,303,1.0,19.0,73,0.00,,OVC025,0.01,VWS V12.07,2013-11-18 20:53:00,
2013-11-18 14:54:00,26.4,18.6,29.99,WNW,303,0.0,19.0,72,0.00,,OVC025,0.01,VWS V12.07,2013-11-18 20:54:00,
2013-11-18 14:55:00,26.4,18.6,29.99,WSW,257,0.0,19.0,72,0.00,,OVC025,0.01,VWS V12.07,2013-11-18 20:55:00,
2013-11-18 14:57:00,26.4,18.6,29.99,WNW,295,0.0,19.0,72,0.00,,OVC025,0.01,VWS V12.07,2013-11-18 20:57:00,
2013-11-18 14:59:00,26.4,18.9,29.99,NW,315,4.0,19.0,73,0.00,,OVC025,0.01,VWS V12.07,2013-11-18 20:59:00,
2013-11-18 15:00:00,26.4,18.6,29.99,NW,314,1.0,19.0,72,0.00,,OVC025,0.01,VWS V12.07,2013-11-18 21:00:00,
2013-11-18 15:01:00,26.4,18.6,29.99,WSW,243,0.0,19.0,72,0.00,,OVC025,0.01,VWS V12.07,2013-11-18 21:01:00,
2013-11-18 15:02:00,26.4,18.9,29.99,West,259,1.0,19.0,73,0.00,,OVC025,0.01,VWS V12.07,2013-11-18 21:02:00,
2013-11-18 15:04:00,26.4,18.9,29.99,NNW,342,0.0,19.0,73,0.00,,OVC025,0.01,VWS V12.07,2013-11-18 21:04:00,
2013-11-18 15:05:00,26.3,18.8,29.99,West,260,2.0,19.0,73,0.00,,OVC025,0.01,VWS V12.07,2013-11-18 21:05:00,
2013-11-18 15:06:00,26.3,19.1,29.99,WNW,294,2.0,19.0,74,0.00,,OVC025,0.01,VWS V12.07,2013-11-18 21:06:00,
2013-11-18 15:07:00,26.3,19.1,29.99,SW,226,0.0,19.0,74,0.00,,OVC025,0.01,VWS V12.07,2013-11-18 21:07:00,
2013-11-18 15:10:00,26.3,19.5,29.99,North,358,3.0,19.0,75,0.00,,OVC025,0.01,VWS V12.07,2013-11-18 21:10:00,
2013-11-18 15:11:00,26.3,19.1,30.00,North,356,0.0,19.0,74,0.00,,OVC025,0.01,VWS V12.07,2013-11-18 21:11:00,
2013-11-18 15:12:00,26.3,19.1,30.00,WNW,298,1.0,19.0,74,0.00,,OVC025,0.01,VWS V12.07,2013-11-18 21:12:00,
2013-11-18 15:15:00,26.3,19.1,30.00,NNW,340,1.0,19.0,74,0.00,,OVC025,0.01,VWS V12.07,2013-11-18 21:15:00,
2013-11-18 15:16:00,26.1,18.6,30.00,NNE,32,5.0,19.0,73,0.00,,OVC025,0.01,VWS V12.07,2013-11-18 21:16:00,
2013-11-18 15:18:00,26.1,18.6,30.00,NW,323,0.0,19.0,73,0.00,,OVC025,0.01,VWS V12.07,2013-11-18 21:18:00,
2013-11-18 15:20:00,26.1,18.6,30.00,West,275,0.0,19.0,73,0.00,,OVC025,0.01,VWS V12.07,2013-11-18 21:20:00,
2013-11-18 15:21:00,26.1,18.6,30.00,West,275,2.0,19.0,73,0.00,,OVC025,0.01,VWS V12.07,2013-11-18 21:21:00,
2013-11-18 15:22:00,26.1,18.6,30.00,West,275,1.0,19.0,73,0.00,,OVC025,0.01,VWS V12.07,2013-11-18 21:22:00,
2013-11-18 15:23:00,26.1,18.6,30.00,West,264,1.0,19.0,73,0.00,,OVC025,0.01,VWS V12.07,2013-11-18 21:23:00,
2013-11-18 15:24:00,26.1,18.3,30.00,West,267,5.0,19.0,72,0.00,,OVC025,0.01,VWS V12.07,2013-11-18 21:24:00,
2013-11-18 15:27:00,26.1,18.6,30.01,NNE,13,3.0,19.0,73,0.00,,OVC025,0.01,VWS V12.07,2013-11-18 21:27:00,
2013-11-18 15:28:00,26.0,18.5,30.01,SSW,207,1.0,19.0,73,0.00,,OVC025,0.01,VWS V12.07,2013-11-18 21:28:00,
2013-11-18 15:29:00,26.0,18.5,30.01,WSW,249,1.0,19.0,73,0.00,,OVC025,0.01,VWS V12.07,2013-11-18 21:29:00,
2013-11-18 15:30:00,26.0,18.5,30.01,WSW,249,0.0,19.0,73,0.00,,OVC025,0.01,VWS V12.07,2013-11-18 21:30:00,
2013-11-18 15:32:00,26.0,18.5,30.01,WSW,249,0.0,19.0,73,0.00,,OVC025,0.01,VWS V12.07,2013-11-18 21:32:00,
2013-11-18 15:33:00,26.0,18.5,30.01,WSW,249,0.0,19.0,73,0.00,,OVC029,0.01,VWS V12.07,2013-11-18 21:33:00,
2013-11-18 15:34:00,26.0,18.5,30.01,WSW,248,0.0,19.0,73,0.00,,OVC029,0.01,VWS V12.07,2013-11-18 21:34:00,
2013-11-18 15:36:00,26.0,18.9,30.01,WSW,246,0.0,19.0,74,0.00,,OVC029,0.01,VWS V12.07,2013-11-18 21:36:00,
2013-11-18 15:37:00,26.0,18.5,30.01,WSW,246,0.0,19.0,73,0.00,,OVC029,0.01,VWS V12.07,2013-11-18 21:37:00,
2013-11-18 15:38:00,26.0,18.9,30.01,SSW,205,1.0,19.0,74,0.00,,OVC029,0.01,VWS V12.07,2013-11-18 21:38:00,
2013-11-18 15:39:00,26.0,18.9,30.01,NNE,19,4.0,19.0,74,0.00,,OVC029,0.01,VWS V12.07,2013-11-18 21:39:00,
2013-11-18 15:41:00,26.0,18.5,30.02,WSW,252,1.0,19.0,73,0.00,,OVC029,0.01,VWS V12.07,2013-11-18 21:41:00,
2013-11-18 15:42:00,26.0,18.5,30.02,WSW,238,0.0,19.0,73,0.00,,OVC029,0.01,VWS V12.07,2013-11-18 21:42:00,
2013-11-18 15:43:00,26.0,18.5,30.02,WSW,248,1.0,19.0,73,0.00,,OVC029,0.01,VWS V12.07,2013-11-18 21:43:00,
2013-11-18 15:44:00,26.0,18.5,30.02,East,91,0.0,19.0,73,0.00,,OVC029,0.01,VWS V12.07,2013-11-18 21:44:00,
2013-11-18 15:46:00,26.0,18.2,30.02,WSW,240,2.0,19.0,72,0.00,,OVC029,0.01,VWS V12.07,2013-11-18 21:46:00,
2013-11-18 15:47:00,26.0,18.2,30.02,WSW,250,0.0,19.0,72,0.00,,OVC029,0.01,VWS V12.07,2013-11-18 21:47:00,
2013-11-18 15:49:00,26.0,18.2,30.02,West,262,0.0,19.0,72,0.00,,OVC029,0.01,VWS V12.07,2013-11-18 21:49:00,
2013-11-18 15:50:00,26.0,18.2,30.02,West,262,1.0,19.0,72,0.00,,OVC029,0.01,VWS V12.07,2013-11-18 21:50:00,
2013-11-18 15:52:00,26.0,18.2,30.02,NNW,335,0.0,19.0,72,0.00,,OVC029,0.01,VWS V12.07,2013-11-18 21:52:00,
2013-11-18 15:54:00,26.0,18.2,30.02,West,280,0.0,19.0,72,0.00,,OVC029,0.01,VWS V12.07,2013-11-18 21:54:00,
2013-11-18 15:55:00,26.0,18.2,30.02,ENE,76,2.0,19.0,72,0.00,,OVC029,0.01,VWS V12.07,2013-11-18 21:55:00,
2013-11-18 15:57:00,26.0,17.9,30.03,West,280,2.0,19.0,71,0.00,,OVC029,0.01,VWS V12.07,2013-11-18 21:57:00,
2013-11-18 15:58:00,26.0,17.9,30.03,ENE,68,4.0,19.0,71,0.00,,OVC029,0.01,VWS V12.07,2013-11-18 21:58:00,
2013-11-18 15:59:00,26.0,18.2,30.03,West,273,1.0,19.0,72,0.00,,OVC029,0.01,VWS V12.07,2013-11-18 21:59:00,
2013-11-18 16:00:00,26.0,18.2,30.03,North,0,0.0,19.0,72,0.00,,OVC029,0.01,VWS V12.07,2013-11-18 22:00:00,
2013-11-18 16:01:00,26.0,18.2,30.03,West,263,4.0,19.0,72,0.00,,OVC029,0.01,VWS V12.07,2013-11-18 22:01:00,
2013-11-18 16:02:00,26.0,18.2,30.03,NW,316,2.0,19.0,72,0.00,,OVC029,0.01,VWS V12.07,2013-11-18 22:02:00,
2013-11-18 16:03:00,26.0,18.2,30.03,NW,316,0.0,19.0,72,0.00,,OVC029,0.01,VWS V12.07,2013-11-18 22:03:00,
2013-11-18 16:04:00,25.8,18.0,30.03,NW,316,0.0,19.0,72,0.00,,OVC027,0.01,VWS V12.07,2013-11-18 22:04:00,
2013-11-18 16:05:00,25.8,18.0,30.03,West,274,3.0,19.0,72,0.00,,OVC027,0.01,VWS V12.07,2013-11-18 22:05:00,
2013-11-18 16:06:00,25.8,18.0,30.03,NW,315,0.0,19.0,72,0.00,,OVC027,0.01,VWS V12.07,2013-11-18 22:06:00,
2013-11-18 16:08:00,25.8,18.0,30.03,NW,315,0.0,19.0,72,0.00,,OVC027,0.01,VWS V12.07,2013-11-18 22:08:00,
2013-11-18 16:09:00,25.8,18.0,30.03,WSW,253,1.0,19.0,72,0.00,,OVC029,0.01,VWS V12.07,2013-11-18 22:09:00,
2013-11-18 16:10:00,25.8,18.4,30.03,SE,129,0.0,19.0,73,0.00,,OVC029,0.01,VWS V12.07,2013-11-18 22:10:00,
2013-11-18 16:11:00,25.8,18.4,30.03,NE,36,0.0,19.0,73,0.00,,OVC029,0.01,VWS V12.07,2013-11-18 22:11:00,
2013-11-18 16:12:00,25.8,18.4,30.03,WNW,303,1.0,19.0,73,0.00,,OVC029,0.01,VWS V12.07,2013-11-18 22:12:00,
2013-11-18 16:13:00,25.8,18.4,30.03,WNW,295,0.0,19.0,73,0.00,,OVC029,0.01,VWS V12.07,2013-11-18 22:13:00,
2013-11-18 16:15:00,25.8,18.0,30.03,NNW,329,0.0,19.0,72,0.00,,OVC029,0.01,VWS V12.07,2013-11-18 22:15:00,
2013-11-18 16:16:00,25.8,18.4,30.03,NW,304,0.0,19.0,73,0.00,,OVC029,0.01,VWS V12.07,2013-11-18 22:16:00,
2013-11-18 16:18:00,25.8,18.4,30.03,NW,304,0.0,19.0,73,0.00,,OVC029,0.01,VWS V12.07,2013-11-18 22:18:00,
2013-11-18 16:19:00,25.8,18.4,30.03,NE,56,1.0,19.0,73,0.00,,OVC029,0.01,VWS V12.07,2013-11-18 22:19:00,
2013-11-18 16:21:00,25.8,18.4,30.03,SSW,204,0.0,19.0,73,0.00,,OVC029,0.01,VWS V12.07,2013-11-18 22:21:00,
2013-11-18 16:22:00,25.8,18.4,30.03,West,266,1.0,19.0,73,0.00,,OVC029,0.01,VWS V12.07,2013-11-18 22:22:00,
2013-11-18 16:23:00,25.8,18.4,30.03,West,266,1.0,19.0,73,0.00,,OVC029,0.01,VWS V12.07,2013-11-18 22:23:00,
2013-11-18 16:24:00,25.8,18.4,30.03,SW,229,0.0,19.0,73,0.00,,OVC029,0.01,VWS V12.07,2013-11-18 22:24:00,
2013-11-18 16:27:00,25.8,18.4,30.04,West,266,0.0,19.0,73,0.00,,OVC029,0.01,VWS V12.07,2013-11-18 22:27:00,
2013-11-18 16:28:00,25.8,18.0,30.04,NNW,333,5.0,19.0,72,0.00,,OVC029,0.01,VWS V12.07,2013-11-18 22:28:00,
2013-11-18 16:29:00,25.8,18.0,30.04,West,259,0.0,19.0,72,0.00,,OVC029,0.01,VWS V12.07,2013-11-18 22:29:00,
2013-11-18 16:32:00,25.8,18.4,30.04,WSW,257,2.0,19.0,73,0.00,,OVC029,0.01,VWS V12.07,2013-11-18 22:32:00,
2013-11-18 16:33:00,25.8,18.4,30.04,WSW,258,3.0,19.0,73,0.00,,OVC029,0.01,VWS V12.07,2013-11-18 22:33:00,
2013-11-18 16:34:00,25.8,18.4,30.04,WNW,297,0.0,19.0,73,0.00,,OVC029,0.01,VWS V12.07,2013-11-18 22:34:00,
2013-11-18 16:35:00,25.8,18.4,30.04,NNW,339,0.0,19.0,73,0.00,,OVC029,0.01,VWS V12.07,2013-11-18 22:35:00,
2013-11-18 16:37:00,25.8,18.4,30.04,WNW,284,0.0,19.0,73,0.00,,OVC029,0.01,VWS V12.07,2013-11-18 22:37:00,
2013-11-18 16:38:00,25.8,18.4,30.04,WNW,284,0.0,19.0,73,0.00,,OVC029,0.01,VWS V12.07,2013-11-18 22:38:00,
2013-11-18 16:39:00,25.8,18.4,30.04,WNW,284,0.0,19.0,73,0.00,,OVC029,0.01,VWS V12.07,2013-11-18 22:39:00,
2013-11-18 16:40:00,25.7,18.3,30.04,SW,227,1.0,19.0,73,0.00,,OVC029,0.01,VWS V12.07,2013-11-18 22:40:00,
2013-11-18 16:41:00,25.7,17.9,30.04,SW,229,3.0,19.0,72,0.00,,OVC029,0.01,VWS V12.07,2013-11-18 22:41:00,
2013-11-18 16:43:00,25.7,17.9,30.04,West,263,0.0,19.0,72,0.00,,OVC029,0.01,VWS V12.07,2013-11-18 22:43:00,
2013-11-18 16:44:00,25.7,18.3,30.04,West,263,0.0,19.0,73,0.00,,OVC029,0.01,VWS V12.07,2013-11-18 22:44:00,
2013-11-18 16:45:00,25.7,18.3,30.04,SW,227,2.0,19.0,73,0.00,,OVC029,0.01,VWS V12.07,2013-11-18 22:45:00,
2013-11-18 16:46:00,25.7,17.9,30.04,North,5,4.0,19.0,72,0.00,,OVC029,0.01,VWS V12.07,2013-11-18 22:46:00,
2013-11-18 16:48:00,25.7,17.9,30.04,SSE,149,0.0,19.0,72,0.00,,OVC029,0.01,VWS V12.07,2013-11-18 22:48:00,
2013-11-18 16:49:00,25.7,17.9,30.04,NW,325,1.0,19.0,72,0.00,,OVC029,0.01,VWS V12.07,2013-11-18 22:49:00,
2013-11-18 16:50:00,25.7,17.9,30.04,NNW,335,0.0,19.0,72,0.00,,OVC029,0.01,VWS V12.07,2013-11-18 22:50:00,
2013-11-18 16:51:00,25.7,17.9,30.04,SW,227,0.0,19.0,72,0.00,,OVC029,0.01,VWS V12.07,2013-11-18 22:51:00,
2013-11-18 16:52:00,25.7,17.6,30.04,WSW,257,2.0,19.0,71,0.00,,OVC029,0.01,VWS V12.07,2013-11-18 22:52:00,
2013-11-18 16:53:00,25.7,17.3,30.04,West,272,0.0,19.0,70,0.00,,OVC029,0.01,VWS V12.07,2013-11-18 22:53:00,
2013-11-18 16:54:00,25.7,17.6,30.04,NNW,327,0.0,19.0,71,0.00,,OVC029,0.01,VWS V12.07,2013-11-18 22:54:00,
2013-11-18 16:56:00,25.7,17.6,30.06,NNW,327,1.0,19.0,71,0.00,,OVC029,0.01,VWS V12.07,2013-11-18 22:56:00,
2013-11-18 16:57:00,25.6,17.5,30.06,West,280,1.0,19.0,71,0.00,,OVC029,0.01,VWS V12.07,2013-11-18 22:57:00,
2013-11-18 16:58:00,25.6,17.5,30.06,ENE,64,4.0,19.0,71,0.00,,OVC029,0.01,VWS V12.07,2013-11-18 22:58:00,
2013-11-18 16:59:00,25.6,17.5,30.06,WNW,301,1.0,19.0,71,0.00,,OVC029,0.01,VWS V12.07,2013-11-18 22:59:00,
2013-11-18 17:01:00,25.6,17.5,30.06,WNW,290,0.0,19.0,71,0.00,,OVC029,0.01,VWS V12.07,2013-11-18 23:01:00,
2013-11-18 17:02:00,25.6,17.5,30.06,WNW,290,0.0,19.0,71,0.00,,OVC029,0.01,VWS V12.07,2013-11-18 23:02:00,
2013-11-18 17:03:00,25.6,17.5,30.06,WNW,290,0.0,19.0,71,0.00,,OVC029,0.01,VWS V12.07,2013-11-18 23:03:00,
2013-11-18 17:05:00,25.6,17.8,30.06,SW,232,0.0,19.0,72,0.00,,OVC029,0.01,VWS V12.07,2013-11-18 23:05:00,
2013-11-18 17:06:00,25.6,17.8,30.06,SW,232,0.0,19.0,72,0.00,,OVC029,0.01,VWS V12.07,2013-11-18 23:06:00,
2013-11-18 17:08:00,25.6,17.8,30.06,SW,232,0.0,19.0,72,0.00,,OVC029,0.01,VWS V12.07,2013-11-18 23:08:00,
2013-11-18 17:10:00,25.4,17.6,30.06,North,358,0.0,19.0,72,0.00,,OVC029,0.01,VWS V12.07,2013-11-18 23:10:00,
2013-11-18 17:11:00,25.4,17.6,30.06,North,358,0.0,19.0,72,0.00,,OVC029,0.01,VWS V12.07,2013-11-18 23:11:00,
2013-11-18 17:12:00,25.4,18.0,30.06,North,358,0.0,19.0,73,0.00,,OVC029,0.01,VWS V12.07,2013-11-18 23:12:00,
2013-11-18 17:13:00,25.4,18.0,30.06,North,358,0.0,19.0,73,0.00,,OVC029,0.01,VWS V12.07,2013-11-18 23:13:00,
2013-11-18 17:14:00,25.4,18.0,30.06,North,358,0.0,19.0,73,0.00,,OVC029,0.01,VWS V12.07,2013-11-18 23:14:00,
2013-11-18 17:16:00,25.4,18.0,30.06,WSW,257,0.0,19.0,73,0.00,,OVC029,0.01,VWS V12.07,2013-11-18 23:16:00,
2013-11-18 17:17:00,25.4,18.0,30.06,North,10,2.0,19.0,73,0.00,,OVC029,0.01,VWS V12.07,2013-11-18 23:17:00,
2013-11-18 17:19:00,25.3,17.9,30.06,NE,49,0.0,19.0,73,0.00,,OVC029,0.01,VWS V12.07,2013-11-18 23:19:00,
2013-11-18 17:21:00,25.3,17.5,30.06,NW,321,0.0,19.0,72,0.00,,OVC029,0.01,VWS V12.07,2013-11-18 23:21:00,
2013-11-18 17:22:00,25.3,17.5,30.06,NW,321,0.0,19.0,72,0.00,,OVC029,0.01,VWS V12.07,2013-11-18 23:22:00,
2013-11-18 17:23:00,25.3,17.5,30.06,WNW,293,1.0,19.0,72,0.00,,OVC029,0.01,VWS V12.07,2013-11-18 23:23:00,
2013-11-18 17:24:00,25.3,17.5,30.06,WNW,293,0.0,19.0,72,0.00,,OVC029,0.01,VWS V12.07,2013-11-18 23:24:00,
2013-11-18 17:26:00,25.3,17.9,30.07,WNW,293,0.0,19.0,73,0.00,,OVC029,0.01,VWS V12.07,2013-11-18 23:26:00,
2013-11-18 17:27:00,25.3,17.5,30.07,WNW,293,0.0,19.0,72,0.00,,OVC029,0.01,VWS V12.07,2013-11-18 23:27:00,
2013-11-18 17:28:00,25.3,17.5,30.07,WNW,293,0.0,19.0,72,0.00,,OVC029,0.01,VWS V12.07,2013-11-18 23:28:00,
2013-11-18 17:29:00,25.3,17.5,30.07,WNW,293,0.0,19.0,72,0.00,,OVC029,0.01,VWS V12.07,2013-11-18 23:29:00,
2013-11-18 17:31:00,25.3,17.5,30.07,NNE,13,1.0,19.0,72,0.00,,OVC029,0.01,VWS V12.07,2013-11-18 23:31:00,
2013-11-18 17:32:00,25.3,17.5,30.07,NNE,13,2.0,19.0,72,0.00,,OVC035,0.01,VWS V12.07,2013-11-18 23:32:00,
2013-11-18 17:33:00,25.3,17.5,30.07,NNE,13,0.0,19.0,72,0.00,,OVC035,0.01,VWS V12.07,2013-11-18 23:33:00,
2013-11-18 17:34:00,25.3,17.9,30.07,NNE,13,0.0,19.0,73,0.00,,OVC035,0.01,VWS V12.07,2013-11-18 23:34:00,
2013-11-18 17:36:00,25.3,17.5,30.07,NNE,13,0.0,19.0,72,0.00,,OVC035,0.01,VWS V12.07,2013-11-18 23:36:00,
2013-11-18 17:37:00,25.3,17.5,30.07,NNE,13,0.0,19.0,72,0.00,,OVC035,0.01,VWS V12.07,2013-11-18 23:37:00,
2013-11-18 17:38:00,25.3,17.5,30.07,NNE,13,0.0,19.0,72,0.00,,OVC035,0.01,VWS V12.07,2013-11-18 23:38:00,
2013-11-18 17:39:00,25.3,17.5,30.07,SW,214,3.0,19.0,72,0.00,,OVC035,0.01,VWS V12.07,2013-11-18 23:39:00,
2013-11-18 17:40:00,25.3,17.5,30.07,West,273,1.0,19.0,72,0.00,,OVC035,0.01,VWS V12.07,2013-11-18 23:40:00,
2013-11-18 17:42:00,25.3,17.2,30.08,NW,307,2.0,19.0,71,0.00,,OVC035,0.01,VWS V12.07,2013-11-18 23:42:00,
2013-11-18 17:43:00,25.3,17.2,30.08,NNW,330,0.0,19.0,71,0.00,,OVC035,0.01,VWS V12.07,2013-11-18 23:43:00,
2013-11-18 17:44:00,25.3,17.2,30.08,SE,137,0.0,19.0,71,0.00,,OVC035,0.01,VWS V12.07,2013-11-18 23:44:00,
2013-11-18 17:45:00,25.3,17.5,30.08,SW,226,0.0,19.0,72,0.00,,OVC035,0.01,VWS V12.07,2013-11-18 23:45:00,
2013-11-18 17:47:00,25.3,17.5,30.08,WNW,298,1.0,19.0,72,0.00,,OVC035,0.01,VWS V12.07,2013-11-18 23:47:00,
2013-11-18 17:48:00,25.3,17.5,30.08,WNW,298,0.0,19.0,72,0.00,,OVC033,0.01,VWS V12.07,2013-11-18 23:48:00,
2013-11-18 17:49:00,25.3,17.2,30.08,WNW,298,0.0,19.0,71,0.00,,OVC033,0.01,VWS V12.07,2013-11-18 23:49:00,
2013-11-18 17:50:00,25.3,17.5,30.08,North,349,3.0,19.0,72,0.00,,OVC033,0.01,VWS V12.07,2013-11-18 23:50:00,
2013-11-18 17:51:00,25.3,17.5,30.08,ENE,71,3.0,19.0,72,0.00,,OVC033,0.01,VWS V12.07,2013-11-18 23:51:00,
2013-11-18 17:52:00,25.4,18.0,30.08,WNW,301,0.0,19.0,73,0.00,,OVC033,0.01,VWS V12.07,2013-11-18 23:52:00,
2013-11-18 17:53:00,25.4,18.0,30.08,WNW,301,0.0,19.0,73,0.00,,OVC033,0.01,VWS V12.07,2013-11-18 23:53:00,
2013-11-18 17:54:00,25.4,17.6,30.08,NNE,27,4.0,19.0,72,0.00,,OVC033,0.01,VWS V12.07,2013-11-18 23:54:00,
2013-11-18 17:55:00,25.4,17.6,30.08,NW,323,0.0,19.0,72,0.00,,OVC033,0.01,VWS V12.07,2013-11-18 23:55:00,
2013-11-18 17:56:00,25.4,17.6,30.08,NW,323,0.0,19.0,72,0.00,,OVC033,0.01,VWS V12.07,2013-11-18 23:56:00,
2013-11-18 17:57:00,25.4,17.6,30.08,NW,323,0.0,19.0,72,0.00,,OVC033,0.01,VWS V12.07,2013-11-18 23:57:00,
2013-11-18 17:59:00,25.4,18.0,30.08,NW,304,1.0,19.0,73,0.00,,OVC033,0.01,VWS V12.07,2013-11-18 23:59:00,
2013-11-18 18:00:00,25.4,18.0,30.08,NW,317,0.0,19.0,73,0.00,,OVC033,0.01,VWS V12.07,2013-11-19 00:00:00,
2013-11-18 18:01:00,25.4,17.6,30.08,NW,317,0.0,19.0,72,0.00,,OVC033,0.01,VWS V12.07,2013-11-19 00:01:00,
2013-11-18 18:02:00,25.4,18.0,30.08,WNW,292,1.0,19.0,73,0.00,,OVC033,0.01,VWS V12.07,2013-11-19 00:02:00,
2013-11-18 18:04:00,25.4,17.6,30.08,West,266,1.0,19.0,72,0.00,,OVC026,0.01,VWS V12.07,2013-11-19 00:04:00,
2013-11-18 18:05:00,25.4,17.6,30.08,NW,307,0.0,19.0,72,0.00,,OVC026,0.01,VWS V12.07,2013-11-19 00:05:00,
2013-11-18 18:06:00,25.6,17.8,30.08,NW,306,0.0,19.0,72,0.00,,OVC026,0.01,VWS V12.07,2013-11-19 00:06:00,
2013-11-18 18:07:00,25.6,17.8,30.08,NW,306,0.0,19.0,72,0.00,,OVC026,0.01,VWS V12.07,2013-11-19 00:07:00,
2013-11-18 18:09:00,25.6,18.2,30.08,WSW,245,0.0,19.0,73,0.00,,OVC026,0.01,VWS V12.07,2013-11-19 00:09:00,
2013-11-18 18:10:00,25.6,18.2,30.08,WSW,245,0.0,19.0,73,0.00,,OVC026,0.01,VWS V12.07,2013-11-19 00:10:00,
2013-11-18 18:11:00,25.6,18.2,30.08,WSW,245,0.0,19.0,73,0.00,,OVC026,0.01,VWS V12.07,2013-11-19 00:11:00,
2013-11-18 18:12:00,25.6,18.2,30.08,NW,326,0.0,19.0,73,0.00,,OVC026,0.01,VWS V12.07,2013-11-19 00:12:00,
2013-11-18 18:13:00,25.6,18.2,30.08,West,278,1.0,19.0,73,0.00,,OVC026,0.01,VWS V12.07,2013-11-19 00:13:00,
2013-11-18 18:15:00,25.6,18.2,30.08,WNW,299,1.0,19.0,73,0.00,,OVC026,0.01,VWS V12.07,2013-11-19 00:15:00,
2013-11-18 18:16:00,25.6,18.2,30.08,WNW,299,0.0,19.0,73,0.00,,OVC026,0.01,VWS V12.07,2013-11-19 00:16:00,
2013-11-18 18:17:00,25.6,18.2,30.08,WNW,299,0.0,19.0,73,0.00,,OVC026,0.01,VWS V12.07,2013-11-19 00:17:00,
2013-11-18 18:18:00,25.6,18.2,30.08,WNW,299,0.0,19.0,73,0.00,,OVC026,0.01,VWS V12.07,2013-11-19 00:18:00,
2013-11-18 18:20:00,25.6,18.5,30.08,WSW,239,0.0,19.0,74,0.00,,OVC026,0.01,VWS V12.07,2013-11-19 00:20:00,
2013-11-18 18:22:00,25.7,18.3,30.08,WNW,300,0.0,19.0,73,0.00,,OVC026,0.01,VWS V12.07,2013-11-19 00:22:00,
2013-11-18 18:23:00,25.7,18.3,30.08,WNW,300,0.0,19.0,73,0.00,,OVC026,0.01,VWS V12.07,2013-11-19 00:23:00,
2013-11-18 18:25:00,25.7,18.6,30.08,North,358,0.0,19.0,74,0.00,,OVC026,0.01,VWS V12.07,2013-11-19 00:25:00,
2013-11-18 18:27:00,25.7,18.6,30.09,West,274,2.0,19.0,74,0.00,,OVC026,0.01,VWS V12.07,2013-11-19 00:27:00,
2013-11-18 18:28:00,25.7,18.6,30.09,West,277,0.0,19.0,74,0.00,,OVC026,0.01,VWS V12.07,2013-11-19 00:28:00,
2013-11-18 18:31:00,25.7,18.3,30.09,West,277,0.0,19.0,73,0.00,,OVC026,0.01,VWS V12.07,2013-11-19 00:31:00,
2013-11-18 18:32:00,25.7,18.6,30.09,West,271,5.0,19.0,74,0.00,,OVC026,0.01,VWS V12.07,2013-11-19 00:32:00,
2013-11-18 18:33:00,25.7,18.6,30.09,NW,306,2.0,19.0,74,0.00,,OVC026,0.01,VWS V12.07,2013-11-19 00:33:00,
2013-11-18 18:35:00,25.7,18.6,30.09,NW,306,1.0,19.0,74,0.00,,OVC026,0.01,VWS V12.07,2013-11-19 00:35:00,
2013-11-18 18:36:00,25.7,18.6,30.09,NW,306,0.0,19.0,74,0.00,,OVC026,0.01,VWS V12.07,2013-11-19 00:36:00,
2013-11-18 18:37:00,25.7,18.6,30.09,NW,306,0.0,19.0,74,0.00,,OVC026,0.01,VWS V12.07,2013-11-19 00:37:00,
2013-11-18 18:38:00,25.7,18.6,30.09,NE,47,1.0,19.0,74,0.00,,OVC026,0.01,VWS V12.07,2013-11-19 00:38:00,
2013-11-18 18:39:00,25.7,18.9,30.09,NE,47,0.0,19.0,75,0.00,,OVC026,0.01,VWS V12.07,2013-11-19 00:39:00,
2013-11-18 18:40:00,25.7,18.9,30.09,NNE,25,0.0,19.0,75,0.00,,OVC026,0.01,VWS V12.07,2013-11-19 00:40:00,
2013-11-18 18:41:00,25.7,18.9,30.09,NNE,25,0.0,19.0,75,0.00,,OVC026,0.01,VWS V12.07,2013-11-19 00:41:00,
2013-11-18 18:42:00,25.7,19.2,30.09,NNW,340,2.0,19.0,76,0.00,,OVC026,0.01,VWS V12.07,2013-11-19 00:42:00,
2013-11-18 18:43:00,25.7,18.9,30.09,NW,304,1.0,19.0,75,0.00,,OVC026,0.01,VWS V12.07,2013-11-19 00:43:00,
2013-11-18 18:44:00,25.7,18.9,30.09,NW,321,3.0,19.0,75,0.00,,OVC026,0.01,VWS V12.07,2013-11-19 00:44:00,
2013-11-18 18:45:00,25.7,18.6,30.09,North,3,0.0,19.0,74,0.00,,OVC026,0.01,VWS V12.07,2013-11-19 00:45:00,
2013-11-18 18:46:00,25.7,18.9,30.09,North,3,0.0,19.0,75,0.00,,OVC026,0.01,VWS V12.07,2013-11-19 00:46:00,
2013-11-18 18:48:00,25.7,18.6,30.09,West,261,1.0,19.0,74,0.00,,OVC026,0.01,VWS V12.07,2013-11-19 00:48:00,
2013-11-18 18:49:00,25.7,18.6,30.09,West,261,1.0,19.0,74,0.00,,OVC026,0.01,VWS V12.07,2013-11-19 00:49:00,
2013-11-18 18:50:00,25.7,18.6,30.09,West,268,0.0,19.0,74,0.00,,OVC026,0.01,VWS V12.07,2013-11-19 00:50:00,
2013-11-18 18:51:00,25.7,18.6,30.09,West,268,0.0,19.0,74,0.00,,OVC026,0.01,VWS V12.07,2013-11-19 00:51:00,
2013-11-18 18:54:00,25.7,18.6,30.09,NE,41,0.0,19.0,74,0.00,,OVC026,0.01,VWS V12.07,2013-11-19 00:54:00,
2013-11-18 18:55:00,25.7,18.6,30.09,NE,39,0.0,19.0,74,0.00,,OVC026,0.01,VWS V12.07,2013-11-19 00:55:00,
2013-11-18 18:56:00,25.7,18.9,30.10,NE,39,0.0,19.0,75,0.00,,OVC026,0.01,VWS V12.07,2013-11-19 00:56:00,
2013-11-18 18:57:00,25.7,18.6,30.10,NE,39,0.0,19.0,74,0.00,,OVC026,0.01,VWS V12.07,2013-11-19 00:57:00,
2013-11-18 18:59:00,25.7,18.9,30.10,NE,39,1.0,19.0,75,0.00,,OVC026,0.01,VWS V12.07,2013-11-19 00:59:00,
2013-11-18 19:00:00,25.7,18.9,30.10,North,354,1.0,19.0,75,0.00,,OVC026,0.01,VWS V12.07,2013-11-19 01:00:00,
2013-11-18 19:01:00,25.7,18.9,30.10,NW,307,2.0,19.0,75,0.00,,OVC026,0.01,VWS V12.07,2013-11-19 01:01:00,
2013-11-18 19:03:00,25.7,18.6,30.10,NW,307,1.0,19.0,74,0.00,,OVC026,0.01,VWS V12.07,2013-11-19 01:03:00,
2013-11-18 19:05:00,25.7,18.6,30.10,NW,322,0.0,19.0,74,0.00,,OVC026,0.01,VWS V12.07,2013-11-19 01:05:00,
2013-11-18 19:06:00,25.6,18.5,30.10,NW,322,0.0,19.0,74,0.00,,OVC026,0.01,VWS V12.07,2013-11-19 01:06:00,
2013-11-18 19:08:00,25.6,18.5,30.10,NE,52,0.0,19.0,74,0.00,,OVC026,0.01,VWS V12.07,2013-11-19 01:08:00,
2013-11-18 19:09:00,25.6,18.5,30.10,NE,52,0.0,19.0,74,0.00,,OVC026,0.01,VWS V12.07,2013-11-19 01:09:00,
2013-11-18 19:10:00,25.6,18.8,30.10,NE,52,0.0,19.0,75,0.00,,OVC026,0.01,VWS V12.07,2013-11-19 01:10:00,
2013-11-18 19:11:00,25.6,18.8,30.10,NE,52,0.0,19.0,75,0.00,,OVC026,0.01,VWS V12.07,2013-11-19 01:11:00,
2013-11-18 19:12:00,25.6,18.8,30.10,NE,52,0.0,19.0,75,0.00,,OVC026,0.01,VWS V12.07,2013-11-19 01:12:00,
2013-11-18 19:14:00,25.6,18.8,30.10,NE,52,0.0,19.0,75,0.00,,OVC026,0.01,VWS V12.07,2013-11-19 01:14:00,
2013-11-18 19:15:00,25.6,18.8,30.10,NE,52,2.0,19.0,75,0.00,,OVC026,0.01,VWS V12.07,2013-11-19 01:15:00,
2013-11-18 19:16:00,25.6,18.5,30.10,WNW,297,2.0,19.0,74,0.00,,OVC026,0.01,VWS V12.07,2013-11-19 01:16:00,
2013-11-18 19:17:00,25.6,18.5,30.10,WSW,244,0.0,19.0,74,0.00,,OVC026,0.01,VWS V12.07,2013-11-19 01:17:00,
2013-11-18 19:19:00,25.6,18.8,30.10,NE,55,0.0,19.0,75,0.00,,OVC026,0.01,VWS V12.07,2013-11-19 01:19:00,
2013-11-18 19:20:00,25.6,18.8,30.10,NE,55,0.0,19.0,75,0.00,,OVC026,0.01,VWS V12.07,2013-11-19 01:20:00,
2013-11-18 19:22:00,25.6,18.8,30.10,NE,41,0.0,19.0,75,0.00,,OVC026,0.01,VWS V12.07,2013-11-19 01:22:00,
2013-11-18 19:25:00,25.6,18.8,30.10,NE,41,0.0,19.0,75,0.00,,OVC026,0.01,VWS V12.07,2013-11-19 01:25:00,
2013-11-18 19:28:00,25.6,18.8,30.11,North,349,1.0,19.0,75,0.00,,OVC026,0.01,VWS V12.07,2013-11-19 01:28:00,
2013-11-18 19:30:00,25.6,18.8,30.11,East,82,0.0,19.0,75,0.00,,OVC026,0.01,VWS V12.07,2013-11-19 01:30:00,
2013-11-18 19:31:00,25.6,18.8,30.11,East,82,1.0,19.0,75,0.00,,OVC026,0.01,VWS V12.07,2013-11-19 01:31:00,
2013-11-18 19:34:00,25.6,18.8,30.11,SSE,158,1.0,19.0,75,0.00,,OVC024,0.01,VWS V12.07,2013-11-19 01:34:00,
2013-11-18 19:35:00,25.6,18.8,30.11,SSE,163,1.0,19.0,75,0.00,,OVC024,0.01,VWS V12.07,2013-11-19 01:35:00,
2013-11-18 19:36:00,25.6,18.8,30.11,NW,304,2.0,19.0,75,0.00,,OVC024,0.01,VWS V12.07,2013-11-19 01:36:00,
2013-11-18 19:39:00,25.6,18.8,30.11,WNW,303,0.0,19.0,75,0.00,,OVC024,0.01,VWS V12.07,2013-11-19 01:39:00,
2013-11-18 19:40:00,25.6,18.8,30.11,WNW,303,1.0,19.0,75,0.00,,OVC024,0.01,VWS V12.07,2013-11-19 01:40:00,
2013-11-18 19:41:00,25.6,18.5,30.11,WSW,257,0.0,19.0,74,0.00,,OVC024,0.01,VWS V12.07,2013-11-19 01:41:00,
2013-11-18 19:44:00,25.6,18.5,30.11,WSW,247,0.0,19.0,74,0.00,,OVC024,0.01,VWS V12.07,2013-11-19 01:44:00,
2013-11-18 19:45:00,25.6,18.5,30.11,North,357,0.0,19.0,74,0.00,,OVC024,0.01,VWS V12.07,2013-11-19 01:45:00,
2013-11-18 19:46:00,25.6,18.8,30.11,North,357,0.0,19.0,75,0.00,,OVC024,0.01,VWS V12.07,2013-11-19 01:46:00,
2013-11-18 19:47:00,25.6,18.5,30.11,North,357,0.0,19.0,74,0.00,,OVC024,0.01,VWS V12.07,2013-11-19 01:47:00,
2013-11-18 19:49:00,25.6,18.5,30.11,North,357,0.0,19.0,74,0.00,,OVC024,0.01,VWS V12.07,2013-11-19 01:49:00,
2013-11-18 19:50:00,25.6,18.5,30.11,North,357,1.0,19.0,74,0.00,,OVC024,0.01,VWS V12.07,2013-11-19 01:50:00,
2013-11-18 19:51:00,25.6,18.5,30.11,North,357,0.0,19.0,74,0.00,,OVC024,0.01,VWS V12.07,2013-11-19 01:51:00,
2013-11-18 19:52:00,25.6,18.5,30.11,North,357,0.0,19.0,74,0.00,,OVC024,0.01,VWS V12.07,2013-11-19 01:52:00,
2013-11-18 19:54:00,25.6,18.8,30.11,SW,218,2.0,19.0,75,0.00,,OVC024,0.01,VWS V12.07,2013-11-19 01:54:00,
2013-11-18 19:55:00,25.6,18.8,30.11,WSW,254,0.0,19.0,75,0.00,,OVC024,0.01,VWS V12.07,2013-11-19 01:55:00,
2013-11-18 19:57:00,25.6,18.8,30.11,WSW,254,0.0,19.0,75,0.00,,OVC024,0.01,VWS V12.07,2013-11-19 01:57:00,
2013-11-18 19:58:00,25.6,18.8,30.11,WSW,257,1.0,19.0,75,0.00,,OVC024,0.01,VWS V12.07,2013-11-19 01:58:00,
2013-11-18 20:00:00,25.6,18.8,30.11,NNW,330,3.0,19.0,75,0.00,,OVC024,0.01,VWS V12.07,2013-11-19 02:00:00,
2013-11-18 20:01:00,25.6,18.8,30.11,WNW,299,0.0,19.0,75,0.00,,OVC024,0.01,VWS V12.07,2013-11-19 02:01:00,
2013-11-18 20:02:00,25.6,18.8,30.11,NNE,15,3.0,19.0,75,0.00,,OVC024,0.01,VWS V12.07,2013-11-19 02:02:00,
2013-11-18 20:03:00,25.6,18.8,30.11,NW,324,2.0,19.0,75,0.00,,OVC024,0.01,VWS V12.07,2013-11-19 02:03:00,
2013-11-18 20:05:00,25.6,18.8,30.11,North,8,0.0,19.0,75,0.00,,OVC026,0.01,VWS V12.07,2013-11-19 02:05:00,
2013-11-18 20:07:00,25.6,18.8,30.11,North,10,1.0,19.0,75,0.00,,OVC026,0.01,VWS V12.07,2013-11-19 02:07:00,
2013-11-18 20:08:00,25.6,18.8,30.11,NE,48,0.0,19.0,75,0.00,,OVC024,0.01,VWS V12.07,2013-11-19 02:08:00,
2013-11-18 20:09:00,25.6,18.8,30.11,West,281,2.0,19.0,75,0.00,,OVC024,0.01,VWS V12.07,2013-11-19 02:09:00,
2013-11-18 20:10:00,25.6,18.8,30.11,West,277,0.0,19.0,75,0.00,,OVC024,0.01,VWS V12.07,2013-11-19 02:10:00,
2013-11-18 20:11:00,25.6,18.8,30.12,West,278,0.0,19.0,75,0.00,,OVC024,0.01,VWS V12.07,2013-11-19 02:11:00,
2013-11-18 20:12:00,25.4,18.6,30.12,North,5,0.0,19.0,75,0.00,,OVC024,0.01,VWS V12.07,2013-11-19 02:12:00,
2013-11-18 20:14:00,25.4,18.3,30.12,NNW,333,1.0,19.0,74,0.00,,OVC024,0.01,VWS V12.07,2013-11-19 02:14:00,
2013-11-18 20:16:00,25.4,18.3,30.12,West,273,0.0,19.0,74,0.00,,OVC024,0.01,VWS V12.07,2013-11-19 02:16:00,
2013-11-18 20:17:00,25.4,18.3,30.12,West,273,0.0,19.0,74,0.00,,OVC024,0.01,VWS V12.07,2013-11-19 02:17:00,
2013-11-18 20:19:00,25.4,18.6,30.12,WSW,251,1.0,19.0,75,0.00,,OVC024,0.01,VWS V12.07,2013-11-19 02:19:00,
2013-11-18 20:21:00,25.4,18.3,30.12,NNW,342,1.0,19.0,74,0.00,,OVC024,0.01,VWS V12.07,2013-11-19 02:21:00,
2013-11-18 20:22:00,25.4,18.3,30.12,NNW,342,0.0,19.0,74,0.00,,OVC024,0.01,VWS V12.07,2013-11-19 02:22:00,
2013-11-18 20:23:00,25.4,18.3,30.12,NNW,342,0.0,19.0,74,0.00,,OVC024,0.01,VWS V12.07,2013-11-19 02:23:00,
2013-11-18 20:24:00,25.4,18.3,30.12,WNW,289,0.0,19.0,74,0.00,,OVC024,0.01,VWS V12.07,2013-11-19 02:24:00,
2013-11-18 20:27:00,25.4,18.3,30.13,NW,313,1.0,19.0,74,0.00,,OVC024,0.01,VWS V12.07,2013-11-19 02:27:00,
2013-11-18 20:28:00,25.4,18.3,30.13,NW,313,1.0,19.0,74,0.00,,OVC024,0.01,VWS V12.07,2013-11-19 02:28:00,
2013-11-18 20:29:00,25.4,18.3,30.13,NW,313,0.0,19.0,74,0.00,,OVC024,0.01,VWS V12.07,2013-11-19 02:29:00,
2013-11-18 20:30:00,25.4,18.6,30.13,NW,313,0.0,19.0,75,0.00,,OVC024,0.01,VWS V12.07,2013-11-19 02:30:00,
2013-11-18 20:32:00,25.4,18.6,30.13,West,274,0.0,19.0,75,0.00,,OVC024,0.01,VWS V12.07,2013-11-19 02:32:00,
2013-11-18 20:34:00,25.4,18.3,30.13,WNW,283,2.0,19.0,74,0.00,,OVC024,0.01,VWS V12.07,2013-11-19 02:34:00,
2013-11-18 20:35:00,25.4,18.3,30.13,NW,304,0.0,19.0,74,0.00,,OVC024,0.01,VWS V12.07,2013-11-19 02:35:00,
2013-11-18 20:38:00,25.4,18.3,30.13,NW,304,0.0,19.0,74,0.00,,OVC024,0.01,VWS V12.07,2013-11-19 02:38:00,
2013-11-18 20:39:00,25.4,18.3,30.13,NW,313,1.0,19.0,74,0.00,,OVC024,0.01,VWS V12.07,2013-11-19 02:39:00,
2013-11-18 20:40:00,25.4,18.3,30.13,NW,313,1.0,19.0,74,0.00,,OVC024,0.01,VWS V12.07,2013-11-19 02:40:00,
2013-11-18 20:41:00,25.4,18.6,30.13,NW,313,0.0,19.0,75,0.00,,OVC024,0.01,VWS V12.07,2013-11-19 02:41:00,
2013-11-18 20:44:00,25.4,18.6,30.13,NNE,33,1.0,19.0,75,0.00,,OVC024,0.01,VWS V12.07,2013-11-19 02:44:00,
2013-11-18 20:45:00,25.4,18.6,30.13,North,358,1.0,19.0,75,0.00,,OVC024,0.01,VWS V12.07,2013-11-19 02:45:00,
2013-11-18 20:46:00,25.4,18.3,30.13,North,0,2.0,19.0,74,0.00,,OVC024,0.01,VWS V12.07,2013-11-19 02:46:00,
2013-11-18 20:49:00,25.4,18.3,30.13,North,0,0.0,19.0,74,0.00,,OVC024,0.01,VWS V12.07,2013-11-19 02:49:00,
2013-11-18 20:50:00,25.4,18.6,30.13,North,0,0.0,19.0,75,0.00,,OVC024,0.01,VWS V12.07,2013-11-19 02:50:00,
2013-11-18 20:51:00,25.4,18.6,30.13,North,0,0.0,19.0,75,0.00,,OVC024,0.01,VWS V12.07,2013-11-19 02:51:00,
2013-11-18 20:55:00,25.3,18.5,30.13,East,84,2.0,19.0,75,0.00,,OVC024,0.01,VWS V12.07,2013-11-19 02:55:00,
2013-11-18 20:56:00,25.3,18.5,30.13,North,352,0.0,19.0,75,0.00,,OVC024,0.01,VWS V12.07,2013-11-19 02:56:00,
2013-11-18 20:57:00,25.3,18.2,30.14,North,352,0.0,19.0,74,0.00,,OVC024,0.01,VWS V12.07,2013-11-19 02:57:00,
2013-11-18 21:00:00,25.3,18.5,30.14,NNE,31,0.0,19.0,75,0.00,,OVC024,0.01,VWS V12.07,2013-11-19 03:00:00,
2013-11-18 21:01:00,25.3,18.5,30.14,NW,304,0.0,19.0,75,0.00,,OVC024,0.01,VWS V12.07,2013-11-19 03:01:00,
2013-11-18 21:02:00,25.3,18.2,30.14,WNW,301,0.0,19.0,74,0.00,,OVC024,0.01,VWS V12.07,2013-11-19 03:02:00,
2013-11-18 21:03:00,25.3,18.5,30.14,North,358,1.0,19.0,75,0.00,,OVC024,0.01,VWS V12.07,2013-11-19 03:03:00,
2013-11-18 21:05:00,25.3,18.5,30.14,West,270,1.0,19.0,75,0.00,,OVC024,0.01,VWS V12.07,2013-11-19 03:05:00,
2013-11-18 21:06:00,25.3,18.5,30.14,West,270,0.0,19.0,75,0.00,,OVC024,0.01,VWS V12.07,2013-11-19 03:06:00,
2013-11-18 21:07:00,25.3,18.5,30.14,ENE,62,0.0,19.0,75,0.00,,OVC024,0.01,VWS V12.07,2013-11-19 03:07:00,
2013-11-18 21:08:00,25.3,18.2,30.14,ENE,62,0.0,19.0,74,0.00,,OVC024,0.01,VWS V12.07,2013-11-19 03:08:00,
2013-11-18 21:11:00,25.3,18.5,30.14,NW,304,2.0,19.0,75,0.00,,OVC024,0.01,VWS V12.07,2013-11-19 03:11:00,
2013-11-18 21:12:00,25.3,18.2,30.14,WNW,288,2.0,19.0,74,0.00,,OVC024,0.01,VWS V12.07,2013-11-19 03:12:00,
2013-11-18 21:14:00,25.3,18.2,30.14,East,89,0.0,19.0,74,0.00,,OVC024,0.01,VWS V12.07,2013-11-19 03:14:00,
2013-11-18 21:16:00,25.3,18.2,30.14,East,79,2.0,19.0,74,0.00,,OVC024,0.01,VWS V12.07,2013-11-19 03:16:00,
2013-11-18 21:17:00,25.3,18.2,30.14,NW,318,0.0,19.0,74,0.00,,OVC024,0.01,VWS V12.07,2013-11-19 03:17:00,
2013-11-18 21:18:00,25.3,18.2,30.14,NW,318,0.0,19.0,74,0.00,,OVC024,0.01,VWS V12.07,2013-11-19 03:18:00,
2013-11-18 21:19:00,25.3,18.2,30.14,NW,318,0.0,19.0,74,0.00,,OVC024,0.01,VWS V12.07,2013-11-19 03:19:00,
2013-11-18 21:21:00,25.3,18.2,30.14,NW,318,0.0,19.0,74,0.00,,OVC024,0.01,VWS V12.07,2013-11-19 03:21:00,
2013-11-18 21:23:00,25.1,18.0,30.14,SW,226,0.0,19.0,74,0.00,,OVC024,0.01,VWS V12.07,2013-11-19 03:23:00,
2013-11-18 21:25:00,25.1,18.0,30.14,North,358,0.0,19.0,74,0.00,,OVC024,0.01,VWS V12.07,2013-11-19 03:25:00,
2013-11-18 21:26:00,25.1,18.0,30.15,North,358,0.0,19.0,74,0.00,,OVC024,0.01,VWS V12.07,2013-11-19 03:26:00,
2013-11-18 21:27:00,25.1,18.0,30.15,North,358,0.0,19.0,74,0.00,,OVC024,0.01,VWS V12.07,2013-11-19 03:27:00,
2013-11-18 21:28:00,25.1,18.0,30.15,North,358,0.0,19.0,74,0.00,,OVC024,0.01,VWS V12.07,2013-11-19 03:28:00,
2013-11-18 21:31:00,25.3,18.2,30.15,North,358,0.0,19.0,74,0.00,,OVC024,0.01,VWS V12.07,2013-11-19 03:31:00,
2013-11-18 21:32:00,25.1,18.0,30.15,North,358,0.0,19.0,74,0.00,,OVC026,0.01,VWS V12.07,2013-11-19 03:32:00,
2013-11-18 21:33:00,25.1,18.3,30.15,North,358,0.0,19.0,75,0.00,,OVC026,0.01,VWS V12.07,2013-11-19 03:33:00,
2013-11-18 21:34:00,25.1,18.0,30.15,North,358,0.0,19.0,74,0.00,,OVC026,0.01,VWS V12.07,2013-11-19 03:34:00,
2013-11-18 21:36:00,25.1,18.0,30.15,North,8,0.0,19.0,74,0.00,,OVC026,0.01,VWS V12.07,2013-11-19 03:36:00,
2013-11-18 21:37:00,25.1,18.3,30.15,North,8,0.0,19.0,75,0.00,,OVC026,0.01,VWS V12.07,2013-11-19 03:37:00,
2013-11-18 21:38:00,25.1,18.3,30.15,North,8,0.0,19.0,75,0.00,,OVC026,0.01,VWS V12.07,2013-11-19 03:38:00,
2013-11-18 21:39:00,25.1,18.0,30.15,North,8,0.0,19.0,74,0.00,,OVC026,0.01,VWS V12.07,2013-11-19 03:39:00,
2013-11-18 21:41:00,25.1,18.3,30.15,NW,309,0.0,19.0,75,0.00,,OVC026,0.01,VWS V12.07,2013-11-19 03:41:00,
2013-11-18 21:42:00,25.1,18.0,30.15,NW,309,0.0,19.0,74,0.00,,OVC026,0.01,VWS V12.07,2013-11-19 03:42:00,
2013-11-18 21:43:00,25.1,18.0,30.15,NW,309,0.0,19.0,74,0.00,,OVC026,0.01,VWS V12.07,2013-11-19 03:43:00,
2013-11-18 21:44:00,25.1,18.0,30.15,NE,48,1.0,19.0,74,0.00,,OVC026,0.01,VWS V12.07,2013-11-19 03:44:00,
2013-11-18 21:46:00,25.1,18.0,30.15,NE,48,0.0,19.0,74,0.00,,OVC026,0.01,VWS V12.07,2013-11-19 03:46:00,
2013-11-18 21:47:00,25.1,18.0,30.15,NE,48,0.0,19.0,74,0.00,,OVC026,0.01,VWS V12.07,2013-11-19 03:47:00,
2013-11-18 21:48:00,25.1,18.0,30.15,NE,48,0.0,19.0,74,0.00,,OVC026,0.01,VWS V12.07,2013-11-19 03:48:00,
2013-11-18 21:49:00,25.1,18.0,30.15,SSW,202,1.0,19.0,74,0.00,,OVC026,0.01,VWS V12.07,2013-11-19 03:49:00,
2013-11-18 21:52:00,25.1,18.0,30.15,West,264,0.0,19.0,74,0.00,,OVC026,0.01,VWS V12.07,2013-11-19 03:52:00,
2013-11-18 21:53:00,25.1,18.0,30.15,West,264,0.0,19.0,74,0.00,,OVC026,0.01,VWS V12.07,2013-11-19 03:53:00,
2013-11-18 21:54:00,25.1,18.0,30.15,West,264,0.0,19.0,74,0.00,,OVC026,0.01,VWS V12.07,2013-11-19 03:54:00,
2013-11-18 21:57:00,25.1,18.0,30.15,West,264,1.0,19.0,74,0.00,,OVC026,0.01,VWS V12.07,2013-11-19 03:57:00,
2013-11-18 21:58:00,25.1,18.0,30.15,WSW,256,0.0,19.0,74,0.00,,OVC026,0.01,VWS V12.07,2013-11-19 03:58:00,
2013-11-18 21:59:00,25.1,18.0,30.15,WSW,256,0.0,19.0,74,0.00,,OVC026,0.01,VWS V12.07,2013-11-19 03:59:00,
2013-11-18 22:01:00,25.1,18.0,30.15,WSW,256,1.0,19.0,74,0.00,,OVC026,0.01,VWS V12.07,2013-11-19 04:01:00,
2013-11-18 22:03:00,25.1,18.3,30.15,North,358,1.0,19.0,75,0.00,,OVC026,0.01,VWS V12.07,2013-11-19 04:03:00,
2013-11-18 22:04:00,25.1,18.3,30.15,NNW,342,1.0,19.0,75,0.00,,OVC024,0.01,VWS V12.07,2013-11-19 04:04:00,
2013-11-18 22:06:00,25.1,18.0,30.15,NNW,340,0.0,19.0,74,0.00,,OVC024,0.01,VWS V12.07,2013-11-19 04:06:00,
2013-11-18 22:07:00,25.1,18.0,30.15,NNW,340,0.0,19.0,74,0.00,,OVC024,0.01,VWS V12.07,2013-11-19 04:07:00,
2013-11-18 22:08:00,25.1,18.0,30.15,NNW,340,0.0,19.0,74,0.00,,OVC024,0.01,VWS V12.07,2013-11-19 04:08:00,
2013-11-18 22:09:00,25.1,18.0,30.15,NNW,340,0.0,19.0,74,0.00,,OVC026,0.01,VWS V12.07,2013-11-19 04:09:00,
2013-11-18 22:10:00,25.1,18.0,30.15,NNW,330,2.0,19.0,74,0.00,,OVC026,0.01,VWS V12.07,2013-11-19 04:10:00,
2013-11-18 22:12:00,25.1,18.3,30.16,SW,220,2.0,19.0,75,0.00,,OVC026,0.01,VWS V12.07,2013-11-19 04:12:00,
2013-11-18 22:13:00,25.1,18.0,30.16,SW,221,0.0,19.0,74,0.00,,OVC026,0.01,VWS V12.07,2013-11-19 04:13:00,
2013-11-18 22:14:00,25.1,18.0,30.16,SW,221,0.0,19.0,74,0.00,,OVC026,0.01,VWS V12.07,2013-11-19 04:14:00,
2013-11-18 22:15:00,25.1,18.0,30.16,NW,304,0.0,19.0,74,0.00,,OVC026,0.01,VWS V12.07,2013-11-19 04:15:00,
2013-11-18 22:17:00,25.1,18.0,30.16,NW,304,0.0,19.0,74,0.00,,OVC026,0.01,VWS V12.07,2013-11-19 04:17:00,
2013-11-18 22:18:00,25.1,18.0,30.16,NW,304,0.0,19.0,74,0.00,,OVC026,0.01,VWS V12.07,2013-11-19 04:18:00,
2013-11-18 22:19:00,25.1,18.0,30.16,NW,304,2.0,19.0,74,0.00,,OVC026,0.01,VWS V12.07,2013-11-19 04:19:00,
2013-11-18 22:20:00,25.1,18.0,30.16,NNE,23,1.0,19.0,74,0.00,,OVC026,0.01,VWS V12.07,2013-11-19 04:20:00,
2013-11-18 22:21:00,25.1,18.0,30.16,NNE,23,0.0,19.0,74,0.00,,OVC026,0.01,VWS V12.07,2013-11-19 04:21:00,
2013-11-18 22:23:00,25.1,18.0,30.16,NNW,341,0.0,19.0,74,0.00,,OVC026,0.01,VWS V12.07,2013-11-19 04:23:00,
2013-11-18 22:24:00,25.1,18.3,30.16,NNW,341,0.0,19.0,75,0.00,,OVC026,0.01,VWS V12.07,2013-11-19 04:24:00,
2013-11-18 22:25:00,25.0,18.2,30.16,WNW,294,1.0,19.0,75,0.00,,OVC026,0.01,VWS V12.07,2013-11-19 04:25:00,
2013-11-18 22:26:00,25.0,17.9,30.16,SSW,207,0.0,19.0,74,0.00,,OVC026,0.01,VWS V12.07,2013-11-19 04:26:00,
2013-11-18 22:28:00,25.0,18.2,30.16,SSW,207,0.0,19.0,75,0.00,,OVC026,0.01,VWS V12.07,2013-11-19 04:28:00,
2013-11-18 22:29:00,25.0,18.2,30.16,East,86,1.0,19.0,75,0.00,,OVC026,0.01,VWS V12.07,2013-11-19 04:29:00,
2013-11-18 22:30:00,25.0,18.2,30.16,ENE,68,0.0,19.0,75,0.00,,OVC026,0.01,VWS V12.07,2013-11-19 04:30:00,
2013-11-18 22:32:00,25.0,17.9,30.16,ENE,64,0.0,19.0,74,0.00,,OVC026,0.01,VWS V12.07,2013-11-19 04:32:00,
2013-11-18 22:33:00,25.0,17.9,30.16,ENE,64,0.0,19.0,74,0.00,,OVC026,0.01,VWS V12.07,2013-11-19 04:33:00,
2013-11-18 22:34:00,25.0,17.9,30.16,ENE,64,0.0,19.0,74,0.00,,OVC026,0.01,VWS V12.07,2013-11-19 04:34:00,
2013-11-18 22:35:00,25.0,17.9,30.16,ENE,64,0.0,19.0,74,0.00,,OVC026,0.01,VWS V12.07,2013-11-19 04:35:00,
2013-11-18 22:36:00,25.0,17.9,30.16,ENE,64,0.0,19.0,74,0.00,,OVC026,0.01,VWS V12.07,2013-11-19 04:36:00,
2013-11-18 22:38:00,25.0,17.9,30.16,ENE,64,0.0,19.0,74,0.00,,OVC026,0.01,VWS V12.07,2013-11-19 04:38:00,
2013-11-18 22:40:00,25.0,17.9,30.16,ENE,64,0.0,19.0,74,0.00,,OVC026,0.01,VWS V12.07,2013-11-19 04:40:00,
2013-11-18 22:41:00,25.0,18.2,30.16,ESE,123,2.0,19.0,75,0.00,,OVC026,0.01,VWS V12.07,2013-11-19 04:41:00,
2013-11-18 22:43:00,25.0,17.9,30.16,North,0,0.0,19.0,74,0.00,,OVC026,0.01,VWS V12.07,2013-11-19 04:43:00,
2013-11-18 22:44:00,25.0,17.9,30.16,North,0,0.0,19.0,74,0.00,,OVC026,0.01,VWS V12.07,2013-11-19 04:44:00,
2013-11-18 22:45:00,25.0,17.9,30.16,North,0,0.0,19.0,74,0.00,,OVC026,0.01,VWS V12.07,2013-11-19 04:45:00,
2013-11-18 22:46:00,25.0,17.9,30.16,North,0,0.0,19.0,74,0.00,,OVC026,0.01,VWS V12.07,2013-11-19 04:46:00,
2013-11-18 22:49:00,25.0,18.2,30.16,NNW,342,0.0,19.0,75,0.00,,OVC026,0.01,VWS V12.07,2013-11-19 04:49:00,
2013-11-18 22:50:00,25.0,17.9,30.16,NNW,342,1.0,19.0,74,0.00,,OVC026,0.01,VWS V12.07,2013-11-19 04:50:00,
2013-11-18 22:51:00,25.0,17.6,30.16,NNW,336,0.0,19.0,73,0.00,,OVC026,0.01,VWS V12.07,2013-11-19 04:51:00,
2013-11-18 22:52:00,25.0,17.6,30.16,NNW,336,0.0,19.0,73,0.00,,OVC026,0.01,VWS V12.07,2013-11-19 04:52:00,
2013-11-18 22:53:00,25.0,17.6,30.16,North,4,1.0,19.0,73,0.00,,OVC026,0.01,VWS V12.07,2013-11-19 04:53:00,
2013-11-18 22:54:00,25.0,17.9,30.16,North,4,0.0,19.0,74,0.00,,OVC026,0.01,VWS V12.07,2013-11-19 04:54:00,
2013-11-18 22:56:00,25.0,17.9,30.16,North,4,0.0,19.0,74,0.00,,OVC026,0.01,VWS V12.07,2013-11-19 04:56:00,
2013-11-18 22:57:00,25.0,17.9,30.16,North,4,0.0,19.0,74,0.00,,OVC026,0.01,VWS V12.07,2013-11-19 04:57:00,
2013-11-18 22:58:00,25.0,17.9,30.16,North,4,1.0,19.0,74,0.00,,OVC026,0.01,VWS V12.07,2013-11-19 04:58:00,
2013-11-18 23:00:00,25.0,17.6,30.16,North,4,0.0,19.0,73,0.00,,OVC026,0.01,VWS V12.07,2013-11-19 05:00:00,
2013-11-18 23:01:00,25.0,17.6,30.16,North,4,0.0,19.0,73,0.00,,OVC026,0.01,VWS V12.07,2013-11-19 05:01:00,
2013-11-18 23:02:00,25.0,17.6,30.16,North,4,0.0,19.0,73,0.00,,OVC026,0.01,VWS V12.07,2013-11-19 05:02:00,
2013-11-18 23:06:00,24.8,17.7,30.16,NNW,341,0.0,19.0,74,0.00,,OVC026,0.01,VWS V12.07,2013-11-19 05:06:00,
2013-11-18 23:07:00,24.8,17.7,30.16,NNW,341,0.0,19.0,74,0.00,,OVC026,0.01,VWS V12.07,2013-11-19 05:07:00,
2013-11-18 23:11:00,24.8,17.4,30.17,NNW,341,0.0,19.0,73,0.00,,OVC026,0.01,VWS V12.07,2013-11-19 05:11:00,
2013-11-18 23:12:00,24.8,17.4,30.17,NNW,341,0.0,19.0,73,0.00,,OVC026,0.01,VWS V12.07,2013-11-19 05:12:00,
2013-11-18 23:13:00,24.8,17.4,30.17,NNW,341,0.0,19.0,73,0.00,,OVC026,0.01,VWS V12.07,2013-11-19 05:13:00,
2013-11-18 23:16:00,24.8,17.4,30.17,NNW,341,0.0,19.0,73,0.00,,OVC026,0.01,VWS V12.07,2013-11-19 05:16:00,
2013-11-18 23:17:00,24.8,17.7,30.17,NNW,342,0.0,19.0,74,0.00,,OVC026,0.01,VWS V12.07,2013-11-19 05:17:00,
2013-11-18 23:18:00,24.8,17.7,30.17,NNW,341,0.0,19.0,74,0.00,,OVC026,0.01,VWS V12.07,2013-11-19 05:18:00,
2013-11-18 23:19:00,24.8,17.7,30.17,NNW,341,0.0,19.0,74,0.00,,OVC026,0.01,VWS V12.07,2013-11-19 05:19:00,
2013-11-18 23:22:00,24.8,17.7,30.17,WSW,244,0.0,19.0,74,0.00,,OVC026,0.01,VWS V12.07,2013-11-19 05:22:00,
2013-11-18 23:24:00,24.8,17.7,30.17,WSW,244,0.0,19.0,74,0.00,,OVC026,0.01,VWS V12.07,2013-11-19 05:24:00,
2013-11-18 23:25:00,24.8,17.7,30.17,North,358,0.0,19.0,74,0.00,,OVC026,0.01,VWS V12.07,2013-11-19 05:25:00,
2013-11-18 23:27:00,24.8,17.7,30.17,North,358,0.0,19.0,74,0.00,,OVC026,0.01,VWS V12.07,2013-11-19 05:27:00,
2013-11-18 23:28:00,24.8,17.7,30.17,North,358,0.0,19.0,74,0.00,,OVC026,0.01,VWS V12.07,2013-11-19 05:28:00,
2013-11-18 23:29:00,24.8,17.7,30.17,NE,55,2.0,19.0,74,0.00,,OVC026,0.01,VWS V12.07,2013-11-19 05:29:00,
2013-11-18 23:30:00,24.8,18.0,30.17,NE,54,0.0,19.0,75,0.00,,OVC026,0.01,VWS V12.07,2013-11-19 05:30:00,
2013-11-18 23:31:00,24.8,18.0,30.17,NE,54,0.0,19.0,75,0.00,,OVC026,0.01,VWS V12.07,2013-11-19 05:31:00,
2013-11-18 23:32:00,24.8,18.0,30.17,NE,54,0.0,19.0,75,0.00,,OVC024,0.01,VWS V12.07,2013-11-19 05:32:00,
2013-11-18 23:34:00,24.8,18.0,30.17,NE,54,0.0,19.0,75,0.00,,OVC024,0.01,VWS V12.07,2013-11-19 05:34:00,
2013-11-18 23:35:00,24.8,18.0,30.17,NE,54,0.0,19.0,75,0.00,,OVC024,0.01,VWS V12.07,2013-11-19 05:35:00,
2013-11-18 23:36:00,24.8,18.0,30.17,NE,54,0.0,19.0,75,0.00,,OVC024,0.01,VWS V12.07,2013-11-19 05:36:00,
2013-11-18 23:37:00,24.8,18.0,30.17,NE,54,0.0,19.0,75,0.00,,OVC024,0.01,VWS V12.07,2013-11-19 05:37:00,
2013-11-18 23:38:00,24.8,18.0,30.17,NE,54,0.0,19.0,75,0.00,,OVC024,0.01,VWS V12.07,2013-11-19 05:38:00,
2013-11-18 23:39:00,24.8,18.0,30.17,NE,54,0.0,19.0,75,0.00,,OVC024,0.01,VWS V12.07,2013-11-19 05:39:00,
2013-11-18 23:40:00,24.8,18.0,30.17,NE,54,0.0,19.0,75,0.00,,OVC024,0.01,VWS V12.07,2013-11-19 05:40:00,
2013-11-18 23:41:00,24.8,18.0,30.17,NE,54,0.0,19.0,75,0.00,,OVC024,0.01,VWS V12.07,2013-11-19 05:41:00,
2013-11-18 23:43:00,24.8,18.0,30.17,NE,54,0.0,19.0,75,0.00,,OVC024,0.00,VWS V12.07,2013-11-19 05:43:00,
2013-11-18 23:44:00,24.8,18.0,30.17,NE,54,0.0,19.0,75,0.00,,OVC024,0.00,VWS V12.07,2013-11-19 05:44:00,
2013-11-18 23:45:00,24.8,18.0,30.17,NE,54,0.0,19.0,75,0.00,,OVC024,0.00,VWS V12.07,2013-11-19 05:45:00,
2013-11-18 23:46:00,24.8,18.0,30.17,NE,54,0.0,19.0,75,0.00,,OVC024,0.00,VWS V12.07,2013-11-19 05:46:00,
2013-11-18 23:48:00,24.8,17.7,30.17,WNW,300,0.0,19.0,74,0.00,,OVC024,0.00,VWS V12.07,2013-11-19 05:48:00,
2013-11-18 23:49:00,24.8,18.0,30.17,WNW,300,0.0,19.0,75,0.00,,OVC024,0.00,VWS V12.07,2013-11-19 05:49:00,
2013-11-18 23:50:00,24.7,17.9,30.17,WNW,300,0.0,19.0,75,0.00,,OVC024,0.00,VWS V12.07,2013-11-19 05:50:00,
2013-11-18 23:51:00,24.7,17.9,30.17,WNW,300,0.0,19.0,75,0.00,,OVC024,0.00,VWS V12.07,2013-11-19 05:51:00,
2013-11-18 23:53:00,24.7,17.9,30.17,WNW,300,0.0,19.0,75,0.00,,OVC024,0.00,VWS V12.07,2013-11-19 05:53:00,
2013-11-18 23:54:00,24.7,17.9,30.17,NW,321,1.0,19.0,75,0.00,,OVC024,0.00,VWS V12.07,2013-11-19 05:54:00,
2013-11-18 23:56:00,24.7,17.6,30.18,NW,321,0.0,19.0,74,0.00,,OVC024,0.00,VWS V12.07,2013-11-19 05:56:00,
2013-11-18 23:57:00,24.7,17.3,30.18,NW,317,0.0,19.0,73,0.00,,OVC024,0.00,VWS V12.07,2013-11-19 05:57:00,
2013-11-18 23:58:00,24.7,17.3,30.18,NW,317,0.0,19.0,73,0.00,,OVC024,0.00,VWS V12.07,2013-11-19 05:58:00,
2013-11-18 23:59:00,24.7,17.6,30.18,NW,317,0.0,19.0,74,0.00,,OVC024,0.00,VWS V12.07,2013-11-19 05:59:00,